[[{"header":{"parameterUnit":"m.s-1","parameterCategory":1,"la1":30.6,"la2":29.2853,"lo1":-89.7004,"lo2":-87.6739,"dy":0.0162,"dx":0.0183,"nx":112,"ny":82,"refTime":"2024-04-01T00:00:00:Z","depth":0,"parameterNumber":2,"parameterNumberName":"U-component_of_WINDS"},"data":[0.0,0.0,0.0,0.0,0.0,0.0,0.0,0.0,0.0,0.0,0.0,0.0,0.0,0.0,0.0,0.0,0.0,0.0,0.0,0.0,0.0,0.0,0.0,0.0,0.0,0.0,0.0,0.0,0.0,0.0,0.0,0.0,0.0,0.0,0.0,0.0,0.0,0.0,0.0,0.0,0.0,0.0,0.0,0.0,0.0,0.0,0.0,0.0,0.0,0.0,0.0,0.0,0.0,0.0,0.0,0.0,0.0,0.0,0.0,0.0,0.0,0.0,0.0,0.0,0.0,0.0,0.0,0.0,0.0,0.0,0.0,0.0,0.0,0.0,0.0,0.0,0.0,0.0,0.0,0.0,0.0,0.0,0.0,0.0,0.0,0.0,0.0,0.0,0.0,0.0,0.0,3.1988,3.4292,3.5706,3.5706,3.4095,3.3106,3.3106,0.0,0.0,0.0,0.0,0.0,0.0,0.0,0.0,0.0,0.0,0.0,0.0,0.0,0.0,0.0,0.0,0.0,0.0,0.0,0.0,0.0,0.0,0.0,0.0,0.0,0.0,0.0,0.0,0.0,0.0,0.0,0.0,0.0,0.0,0.0,0.0,0.0,0.0,0.0,0.0,0.0,0.0,0.0,0.0,0.0,0.0,0.0,0.0,0.0,0.0,0.0,0.0,0.0,0.0,0.0,0.0,0.0,0.0,0.0,0.0,0.0,0.0,0.0,0.0,0.0,0.0,0.0,0.0,0.0,0.0,0.0,0.0,0.0,0.0,0.0,0.0,0.0,0.0,0.0,0.0,0.0,0.0,0.0,0.0,0.0,0.0,0.0,0.0,0.0,0.0,0.0,0.0,0.0,0.0,0.0,0.0,0.0,0.0,0.0,0.0,0.0,0.0,0.0,0.0,3.0504,3.3676,3.5029,3.5706,3.5706,3.4095,3.3106,3.3106,0.0,0.0,0.0,0.0,0.0,0.0,0.0,0.0,0.0,0.0,0.0,0.0,0.0,0.0,0.0,0.0,0.0,0.0,0.0,0.0,0.0,0.0,0.0,0.0,0.0,0.0,0.0,0.0,0.0,0.0,0.0,0.0,0.0,0.0,0.0,0.0,0.0,0.0,0.0,0.0,0.0,0.0,0.0,0.0,0.0,0.0,0.0,0.0,0.0,0.0,0.0,0.0,0.0,0.0,0.0,0.0,0.0,0.0,0.0,0.0,0.0,0.0,0.0,0.0,0.0,0.0,0.0,0.0,0.0,0.0,0.0,0.0,0.0,0.0,0.0,0.0,0.0,0.0,0.0,0.0,0.0,0.0,0.0,0.0,0.0,0.0,0.0,0.0,0.0,0.0,0.0,0.0,0.0,0.0,0.0,0.0,0.0,0.0,0.0,0.0,0.0,0.0,0.0,3.0558,3.2318,3.4837,3.5455,3.5706,3.5706,3.4095,3.2893,3.243,2.9632,0.0,0.0,0.0,0.0,0.0,0.0,0.0,0.0,0.0,0.0,0.0,0.0,0.0,0.0,0.0,0.0,0.0,0.0,0.0,0.0,0.0,0.0,0.0,0.0,0.0,0.0,0.0,0.0,0.0,0.0,0.0,0.0,0.0,0.0,0.0,0.0,0.0,0.0,0.0,0.0,0.0,0.0,0.0,0.0,0.0,0.0,0.0,0.0,0.0,0.0,0.0,0.0,0.0,0.0,0.0,0.0,0.0,0.0,0.0,0.0,0.0,0.0,0.0,0.0,0.0,0.0,0.0,0.0,0.0,0.0,0.0,0.0,0.0,0.0,0.0,0.0,0.0,0.0,0.0,0.0,0.0,0.0,0.0,0.0,0.0,0.0,0.0,0.0,0.0,0.0,0.0,0.0,0.0,0.0,0.0,0.0,0.0,0.0,0.0,0.0,0.0,0.0,3.2179,3.3765,3.5512,3.5706,3.5706,3.5706,3.4095,3.2816,3.2159,2.9516,0.0,0.0,0.0,0.0,0.0,0.0,0.0,0.0,0.0,0.0,0.0,0.0,0.0,0.0,0.0,0.0,0.0,0.0,0.0,0.0,0.0,0.0,0.0,0.0,0.0,0.0,0.0,0.0,0.0,0.0,0.0,0.0,0.0,0.0,0.0,0.0,0.0,0.0,0.0,0.0,0.0,0.0,0.0,0.0,0.0,0.0,0.0,0.0,0.0,0.0,0.0,0.0,0.0,0.0,0.0,0.0,0.0,0.0,0.0,0.0,0.0,0.0,0.0,0.0,0.0,0.0,0.0,0.0,0.0,0.0,0.0,0.0,0.0,0.0,0.0,0.0,0.0,0.0,0.0,0.0,0.0,0.0,0.0,0.0,0.0,0.0,0.0,0.0,0.0,0.0,0.0,0.0,0.0,0.0,0.0,0.0,0.0,0.0,0.0,0.0,0.0,0.0,3.2526,3.3765,3.5512,3.5706,3.5706,3.5706,3.4095,3.3066,3.3009,2.9863,0.0,0.0,0.0,0.0,0.0,0.0,0.0,0.0,0.0,0.0,0.0,0.0,0.0,0.0,0.0,0.0,0.0,0.0,0.0,0.0,0.0,0.0,0.0,0.0,0.0,0.0,0.0,0.0,0.0,0.0,0.0,0.0,0.0,0.0,0.0,0.0,0.0,0.0,0.0,0.0,0.0,0.0,0.0,0.0,0.0,0.0,0.0,0.0,0.0,0.0,0.0,0.0,0.0,0.0,0.0,0.0,0.0,0.0,0.0,0.0,0.0,0.0,0.0,0.0,0.0,0.0,0.0,0.0,0.0,0.0,0.0,0.0,0.0,0.0,0.0,0.0,0.0,0.0,0.0,0.0,0.0,0.0,0.0,0.0,0.0,0.0,0.0,0.0,0.0,0.0,0.0,0.0,0.0,0.0,0.0,0.0,0.0,0.0,0.0,0.0,0.0,0.0,3.3469,3.5115,0.0,3.6447,3.6458,3.6458,3.4385,3.2642,3.1601,0.0,0.0,0.0,0.0,0.0,0.0,0.0,0.0,0.0,0.0,0.0,0.0,0.0,0.0,0.0,0.0,0.0,0.0,0.0,0.0,0.0,0.0,0.0,0.0,0.0,0.0,0.0,0.0,0.0,0.0,0.0,0.0,0.0,0.0,0.0,0.0,0.0,0.0,0.0,0.0,0.0,0.0,0.0,0.0,0.0,0.0,0.0,0.0,0.0,0.0,0.0,0.0,0.0,0.0,0.0,0.0,0.0,0.0,0.0,0.0,0.0,0.0,0.0,0.0,0.0,0.0,0.0,0.0,0.0,0.0,0.0,0.0,0.0,0.0,0.0,0.0,0.0,0.0,0.0,0.0,0.0,0.0,0.0,0.0,0.0,0.0,0.0,0.0,0.0,0.0,0.0,0.0,0.0,0.0,0.0,0.0,0.0,0.0,0.0,0.0,0.0,0.0,3.2295,3.4357,3.6048,0.0,3.7309,3.7191,3.692,3.4803,3.2884,3.1476,0.0,0.0,0.0,0.0,0.0,0.0,0.0,0.0,0.0,0.0,0.0,0.0,0.0,0.0,0.0,0.0,0.0,0.0,0.0,0.0,0.0,0.0,0.0,0.0,0.0,0.0,0.0,0.0,0.0,0.0,0.0,0.0,0.0,0.0,0.0,0.0,0.0,0.0,0.0,0.0,0.0,0.0,0.0,0.0,0.0,0.0,0.0,0.0,0.0,0.0,0.0,0.0,0.0,0.0,0.0,0.0,0.0,0.0,0.0,0.0,0.0,0.0,0.0,0.0,0.0,0.0,0.0,0.0,0.0,0.0,0.0,0.0,0.0,0.0,0.0,0.0,0.0,0.0,0.0,0.0,0.0,0.0,0.0,0.0,0.0,0.0,0.0,0.0,0.0,0.0,0.0,0.0,0.0,0.0,0.0,0.0,0.0,0.0,0.0,0.0,0.0,0.0,3.3865,3.5077,3.6298,3.8035,3.8216,3.7866,3.6997,3.5311,3.3944,0.0,0.0,0.0,0.0,0.0,0.0,0.0,0.0,0.0,0.0,0.0,0.0,0.0,0.0,0.0,0.0,0.0,0.0,0.0,0.0,0.0,0.0,0.0,0.0,0.0,0.0,0.0,0.0,0.0,0.0,0.0,0.0,0.0,0.0,0.0,0.0,0.0,0.0,0.0,0.0,0.0,0.0,0.0,0.0,0.0,0.0,0.0,0.0,0.0,0.0,0.0,0.0,0.0,0.0,0.0,0.0,0.0,0.0,0.0,0.0,0.0,0.0,0.0,0.0,0.0,0.0,0.0,0.0,0.0,0.0,0.0,0.0,0.0,0.0,0.0,0.0,0.0,0.0,0.0,0.0,0.0,0.0,0.0,0.0,0.0,0.0,0.0,0.0,0.0,0.0,0.0,0.0,0.0,0.0,0.0,0.0,0.0,0.0,0.0,0.0,0.0,0.0,0.0,3.3869,3.6066,3.7791,3.8929,3.9098,3.8761,3.7886,3.5659,3.3693,3.2266,0.0,0.0,0.0,0.0,0.0,0.0,0.0,0.0,0.0,0.0,0.0,0.0,0.0,0.0,0.0,0.0,0.0,0.0,0.0,0.0,0.0,0.0,0.0,0.0,0.0,0.0,0.0,0.0,0.0,0.0,0.0,0.0,0.0,0.0,0.0,0.0,0.0,0.0,0.0,0.0,0.0,0.0,0.0,0.0,0.0,0.0,0.0,0.0,0.0,0.0,0.0,0.0,0.0,0.0,0.0,0.0,0.0,0.0,0.0,0.0,0.0,0.0,0.0,0.0,0.0,0.0,0.0,0.0,0.0,0.0,0.0,0.0,0.0,0.0,0.0,0.0,0.0,0.0,0.0,0.0,0.0,0.0,0.0,0.0,0.0,0.0,0.0,0.0,0.0,0.0,0.0,0.0,0.0,0.0,0.0,0.0,0.0,0.0,0.0,0.0,0.0,0.0,3.4355,3.6708,3.8566,3.9758,3.9909,3.9593,3.8753,3.6606,3.4564,3.2866,0.0,0.0,0.0,0.0,0.0,0.0,0.0,0.0,0.0,0.0,0.0,0.0,0.0,0.0,0.0,0.0,0.0,0.0,0.0,0.0,0.0,0.0,0.0,0.0,0.0,0.0,0.0,0.0,0.0,0.0,0.0,0.0,0.0,0.0,0.0,0.0,0.0,0.0,0.0,0.0,0.0,0.0,0.0,0.0,0.0,0.0,0.0,0.0,0.0,0.0,0.0,0.0,0.0,0.0,0.0,0.0,0.0,0.0,0.0,0.0,0.0,0.0,0.0,0.0,0.0,0.0,0.0,0.0,0.0,0.0,0.0,0.0,0.0,0.0,0.0,0.0,0.0,0.0,0.0,0.0,0.0,0.0,0.0,0.0,0.0,0.0,0.0,0.0,0.0,0.0,0.0,0.0,0.0,0.0,0.0,0.0,0.0,0.0,0.0,0.0,0.0,0.0,3.5058,3.7026,3.8747,4.0414,4.0606,4.0261,3.946,3.7799,3.6069,3.4312,0.0,0.0,0.0,0.0,0.0,0.0,0.0,0.0,0.0,0.0,0.0,0.0,0.0,0.0,0.0,0.0,0.0,0.0,0.0,0.0,0.0,0.0,0.0,0.0,0.0,0.0,0.0,0.0,0.0,0.0,0.0,0.0,0.0,0.0,0.0,0.0,0.0,0.0,0.0,0.0,0.0,0.0,0.0,0.0,0.0,0.0,0.0,0.0,0.0,0.0,0.0,0.0,0.0,0.0,0.0,0.0,0.0,0.0,0.0,0.0,2.7412,0.0,0.0,0.0,0.0,0.0,0.0,0.0,0.0,0.0,0.0,0.0,0.0,0.0,0.0,0.0,0.0,0.0,0.0,0.0,0.0,0.0,0.0,0.0,0.0,0.0,0.0,0.0,0.0,0.0,0.0,0.0,0.0,0.0,0.0,0.0,0.0,0.0,0.0,0.0,0.0,0.0,3.5058,3.7026,3.8747,4.0414,4.0606,4.0261,3.946,3.7799,3.6069,3.4312,0.0,0.0,0.0,0.0,0.0,0.0,0.0,0.0,0.0,0.0,0.0,0.0,0.0,0.0,0.0,0.0,0.0,0.0,0.0,0.0,0.0,0.0,0.0,0.0,0.0,0.0,0.0,0.0,0.0,0.0,0.0,0.0,0.0,0.0,0.0,0.0,0.0,0.0,0.0,0.0,0.0,0.0,0.0,0.0,0.0,0.0,0.0,0.0,0.0,0.0,0.0,0.0,0.0,0.0,0.0,0.0,0.0,0.0,0.0,0.0,0.0,2.8896,0.0,0.0,0.0,0.0,0.0,0.0,0.0,0.0,0.0,0.0,0.0,0.0,0.0,0.0,0.0,0.0,0.0,0.0,0.0,0.0,0.0,0.0,0.0,0.0,0.0,0.0,0.0,0.0,0.0,0.0,0.0,0.0,0.0,0.0,0.0,0.0,0.0,0.0,0.0,0.0,3.5076,3.6961,3.8697,4.0369,4.0544,4.0381,3.9952,3.8745,3.7252,3.5515,3.3401,0.0,0.0,0.0,0.0,0.0,0.0,0.0,0.0,0.0,0.0,0.0,0.0,0.0,0.0,0.0,0.0,0.0,0.0,0.0,0.0,0.0,0.0,0.0,0.0,0.0,0.0,0.0,0.0,0.0,0.0,0.0,0.0,0.0,0.0,0.0,0.0,0.0,0.0,0.0,0.0,0.0,0.0,0.0,0.0,0.0,0.0,0.0,0.0,0.0,0.0,0.0,0.0,0.0,3.5055,3.5429,3.6137,3.6137,3.6563,3.714,3.3612,3.2221,3.2311,0.0,0.0,0.0,0.0,0.0,0.0,0.0,0.0,0.0,0.0,0.0,0.0,0.0,0.0,0.0,0.0,0.0,0.0,0.0,0.0,0.0,0.0,0.0,0.0,0.0,3.5052,3.4595,0.0,0.0,0.0,0.0,0.0,0.0,0.0,0.0,0.0,0.0,0.0,0.0,3.5272,3.7131,3.8809,4.0341,4.0495,4.0495,4.0495,3.9763,3.8626,3.7023,3.5353,3.3029,0.0,0.0,0.0,0.0,0.0,0.0,0.0,0.0,0.0,0.0,0.0,0.0,0.0,0.0,0.0,0.0,0.0,0.0,0.0,0.0,0.0,0.0,0.0,0.0,0.0,0.0,0.0,0.0,0.0,0.0,0.0,0.0,3.0048,2.9476,0.0,0.0,0.0,0.0,0.0,0.0,0.0,0.0,0.0,0.0,0.0,0.0,0.0,0.0,3.6191,3.6916,3.7657,3.8453,3.8453,3.8507,3.8621,3.8621,3.9104,3.9832,3.8547,0.0,3.4875,3.3203,0.0,0.0,0.0,0.0,0.0,0.0,0.0,0.0,0.0,0.0,0.0,0.0,0.0,0.0,0.0,0.0,0.0,0.0,0.0,0.0,0.0,0.0,3.63,3.7288,3.8046,3.8289,0.0,3.4183,3.1579,3.1454,0.0,0.0,0.0,0.0,0.0,0.0,0.0,0.0,3.6105,3.7967,3.9428,4.0395,4.0495,4.0495,4.0495,3.9763,3.8877,3.7892,3.6254,3.4446,3.2488,3.0791,0.0,0.0,0.0,0.0,0.0,0.0,0.0,0.0,0.0,0.0,0.0,0.0,0.0,0.0,0.0,0.0,0.0,0.0,0.0,0.0,0.0,0.0,0.0,0.0,0.0,0.0,0.0,0.0,0.0,3.002,3.0582,3.0732,3.1052,3.1143,0.0,0.0,0.0,0.0,0.0,0.0,0.0,0.0,0.0,3.5745,3.7382,3.8643,3.9441,4.0254,4.1055,4.185,4.185,4.211,4.2578,4.2578,4.3043,4.3786,4.295,4.1705,4.0015,3.6527,3.5078,3.4911,0.0,0.0,0.0,0.0,3.3147,3.4372,3.3071,3.3702,0.0,0.0,0.0,0.0,0.0,0.0,0.0,0.0,0.0,0.0,0.0,0.0,0.0,3.9829,4.0282,4.0446,4.0094,3.8265,3.6144,0.0,3.2015,3.0399,3.0453,0.0,0.0,0.0,0.0,0.0,3.7614,3.9104,4.0441,4.1814,4.1528,4.1239,4.1239,4.0454,3.9629,3.878,3.8047,3.6641,3.4446,3.3197,3.1331,0.0,0.0,0.0,0.0,0.0,0.0,0.0,0.0,0.0,0.0,0.0,0.0,0.0,0.0,0.0,0.0,0.0,0.0,0.0,0.0,0.0,0.0,0.0,0.0,0.0,0.0,0.0,0.0,3.1057,3.1626,3.2306,3.2595,3.2639,0.0,0.0,0.0,0.0,0.0,0.0,3.6659,3.7512,3.8328,3.9123,4.0778,4.1949,4.2541,4.334,4.4042,4.4638,4.4638,4.4973,4.5608,4.5608,4.5922,4.6477,4.5866,4.5233,4.4283,3.9792,3.7826,3.7492,3.6022,3.5445,3.5445,3.5445,3.6374,3.7473,3.6227,3.6747,3.7714,3.6265,0.0,3.5333,3.474,0.0,0.0,0.0,0.0,3.777,3.8383,3.9777,4.1168,4.1763,4.206,4.2168,4.1947,4.1445,4.0176,0.0,3.4843,3.3165,3.3221,0.0,0.0,0.0,0.0,3.6797,3.9268,4.0451,4.1589,4.2926,4.2488,4.2029,4.1829,4.1201,4.0474,3.9667,3.9416,3.8452,3.6542,3.5218,3.3522,3.1392,0.0,0.0,0.0,0.0,0.0,0.0,0.0,0.0,0.0,0.0,0.0,0.0,0.0,0.0,0.0,0.0,0.0,0.0,0.0,0.0,0.0,0.0,0.0,0.0,0.0,0.0,0.0,0.0,0.0,3.3952,3.4716,0.0,0.0,0.0,0.0,3.6451,3.7228,3.8383,4.0055,4.0929,4.1724,4.2521,4.4176,4.5068,4.5107,4.5902,4.6329,4.6366,4.6366,4.6403,4.644,4.644,4.6459,4.6496,4.6459,4.6403,4.6108,4.2747,4.0908,4.0111,3.9216,3.8843,3.8843,3.8843,3.9439,4.0204,4.0111,4.0631,4.1205,4.0353,3.9532,3.8843,3.8807,3.8787,0.0,0.0,3.9478,4.0224,4.026,4.1464,4.269,4.2725,4.3319,4.367,4.2892,4.2706,4.2188,0.0,3.8218,3.6559,3.6563,0.0,3.4823,3.6582,3.7695,3.9021,4.0944,4.2006,4.2705,4.2982,4.2977,4.2629,4.1864,4.1753,4.1353,4.0495,3.9725,3.9243,3.9108,3.6735,3.4969,3.3921,3.1404,0.0,0.0,0.0,0.0,0.0,0.0,0.0,0.0,0.0,0.0,0.0,0.0,0.0,0.0,0.0,0.0,0.0,0.0,0.0,0.0,0.0,0.0,0.0,0.0,0.0,0.0,0.0,0.0,3.6921,3.7403,0.0,0.0,3.8286,3.9034,4.0468,4.0824,4.1738,4.3451,4.3825,4.4343,4.5161,4.6252,4.683,4.683,4.7646,4.8036,4.8036,4.8036,4.8036,4.8036,4.8036,4.8036,4.8036,4.8036,4.7755,4.7181,4.6013,4.4752,4.3474,4.2595,4.2259,4.2259,4.2259,4.2799,4.3474,4.2913,4.3264,4.3842,4.2985,4.25,4.2259,4.2259,4.2259,4.2259,4.2259,4.2876,4.3546,4.3546,4.4362,4.5177,4.5177,4.5398,4.5381,4.4585,4.4401,4.4063,4.2931,4.0774,3.9115,3.9115,3.8184,3.7855,3.9157,3.9713,4.0637,4.2487,4.3127,4.3678,4.4344,4.3991,4.3596,4.3306,4.2326,4.1592,4.1287,4.0513,3.984,3.932,3.7892,3.643,3.4968,3.2436,3.0545,0.0,0.0,0.0,0.0,0.0,0.0,0.0,0.0,0.0,0.0,0.0,0.0,0.0,0.0,0.0,0.0,0.0,0.0,0.0,0.0,0.0,0.0,0.0,0.0,0.0,0.0,3.7827,3.9624,4.0214,4.0679,4.1252,4.1575,4.2232,4.3389,4.373,4.4514,4.6003,4.6085,4.6467,4.7274,4.7831,4.8091,4.8091,4.8628,4.8904,4.8904,4.8904,4.8904,4.8904,4.8904,4.8904,4.8904,4.8904,4.8609,4.8091,4.8091,4.7478,4.6403,4.5287,4.4841,4.4841,4.4841,4.5214,4.5625,4.5047,4.5212,4.5604,4.5026,4.4841,4.4841,4.4841,4.4841,4.4841,4.4841,4.5251,4.5701,4.5701,4.6106,4.6496,4.6496,4.6496,4.6347,4.5813,4.5701,4.5532,4.4954,4.2876,4.1205,4.1205,4.0516,4.0263,4.1226,4.1477,4.2093,4.3633,4.3997,4.4364,4.5038,4.4673,4.4302,4.4051,4.2793,4.1905,4.1671,4.0886,4.007,3.9277,3.8397,3.7255,3.5792,3.3218,3.1298,3.0055,0.0,0.0,0.0,0.0,0.0,0.0,0.0,0.0,0.0,0.0,0.0,0.0,0.0,0.0,0.0,0.0,0.0,0.0,0.0,0.0,0.0,0.0,0.0,3.5473,3.7706,4.0021,4.1969,4.3003,4.3617,4.3781,4.4564,4.5071,4.5093,4.5838,4.6674,4.762,4.7686,4.8077,4.8942,4.8981,4.8981,4.8981,4.8981,4.8981,4.8981,4.8981,4.8981,4.8981,4.8981,4.8981,4.8981,4.8981,4.8981,4.8981,4.8942,4.8944,4.8777,4.7181,4.6572,4.6572,4.6572,4.6572,4.6572,4.6572,4.6572,4.6572,4.6572,4.6572,4.6572,4.6572,4.6572,4.6572,4.6572,4.6572,4.6572,4.6572,4.6572,4.6572,4.6572,4.6572,4.6572,4.6535,4.6535,4.6533,4.6496,4.4564,4.2913,4.2872,4.2207,4.1958,4.2802,4.2994,0.0,4.4369,4.4609,4.4749,4.4866,4.494,4.4703,4.3992,4.3111,4.2323,4.1666,4.0798,3.9943,3.9165,3.8279,3.7356,3.6436,3.3884,3.1685,2.9888,0.0,0.0,0.0,0.0,0.0,0.0,0.0,0.0,0.0,0.0,0.0,0.0,0.0,0.0,0.0,0.0,0.0,0.0,0.0,0.0,0.0,0.0,3.6908,3.8376,4.0279,4.2241,4.4191,4.4685,4.5154,4.5872,4.6249,4.6711,4.7355,4.7725,4.8355,4.9291,4.9391,4.9809,5.0692,5.0711,5.0711,5.0711,5.0711,5.0711,5.0711,5.0711,5.0711,5.0711,5.0711,5.0711,5.0711,5.0711,5.0711,5.0655,5.0037,4.9777,4.9664,4.8647,4.8238,4.8238,4.8238,4.8238,4.8238,4.8238,4.8238,4.8238,4.8238,4.8238,4.8238,4.8238,4.8238,4.8238,4.8238,4.8238,4.8238,4.8238,4.8238,4.8238,4.8238,4.8238,4.8089,4.7499,4.7367,4.7202,4.6607,4.5957,4.5307,4.4717,4.3914,4.3441,4.3789,4.3858,0.0,4.4304,4.4424,4.4501,4.4524,4.4649,4.4656,4.4493,4.3235,4.2429,4.2338,4.1008,4.0156,3.9979,3.8474,3.6642,3.4507,3.4274,3.3306,0.0,0.0,0.0,0.0,0.0,0.0,0.0,0.0,0.0,0.0,0.0,0.0,0.0,0.0,0.0,0.0,0.0,0.0,0.0,0.0,0.0,0.0,3.6945,3.9202,4.1318,4.2529,4.3792,4.5407,4.5941,4.6607,4.762,4.7792,4.8236,4.92,4.9364,4.9739,5.0421,5.05,5.0789,5.1377,5.1398,5.1398,5.1398,5.1398,5.1398,5.1398,5.1398,5.1398,5.1398,5.1398,5.1398,0.0,5.1398,5.1398,5.1361,5.0857,5.0632,0.0,0.0,0.0,0.0,0.0,4.8904,4.8904,4.8904,4.8904,4.8904,4.8904,4.8904,4.8904,4.8904,4.8904,4.8904,4.8904,4.8904,4.8904,4.8904,4.8904,4.8904,4.8904,4.8904,4.8774,4.8294,4.8201,4.8052,4.7606,4.7239,0.0,4.6387,4.5604,4.5063,4.5152,4.4882,4.4678,4.4708,4.4489,4.4316,4.4316,4.4419,4.4508,4.4605,4.3451,0.0,0.0,0.0,4.0274,3.9575,3.8197,0.0,0.0,0.0,3.5247,3.4218,0.0,0.0,0.0,3.1913,3.2513,0.0,0.0,0.0,0.0,0.0,0.0,0.0,0.0,0.0,0.0,0.0,0.0,0.0,0.0,0.0,0.0,3.9358,4.1695,4.401,4.4528,4.5034,4.609,4.69,4.7817,4.8953,4.9079,4.9505,5.048,5.0586,5.0794,5.1196,0.0,0.0,0.0,0.0,5.1663,5.1676,5.1676,5.1676,5.1676,5.1676,5.1676,5.1676,5.1676,5.1676,5.1676,5.1676,5.1676,5.1656,5.1563,5.1472,5.1249,4.9759,4.9185,4.9185,4.9185,4.9185,4.9185,4.9185,0.0,0.0,4.9074,4.9034,4.9016,4.8923,4.8904,4.8904,4.8904,4.8904,4.8904,4.8904,4.8904,4.8904,4.8904,4.8904,4.8904,4.8904,4.8904,4.8904,4.8904,4.8312,4.7848,4.7848,4.7088,4.6496,4.6496,4.5885,4.5439,4.5439,4.4856,4.4457,4.4457,0.0,0.0,4.4617,4.3833,4.3062,4.2468,4.1675,4.0498,3.8827,3.8014,3.7509,3.7266,3.7406,3.7465,3.7411,3.8262,3.8637,3.8449,3.6139,3.5864,0.0,0.0,0.0,0.0,0.0,0.0,0.0,0.0,0.0,0.0,0.0,0.0,0.0,0.0,0.0,3.9569,4.1759,4.3842,4.5552,4.6361,4.6984,4.7477,4.7684,4.8217,4.9295,4.9558,4.9827,5.0253,5.0521,5.1034,5.1859,5.2017,0.0,5.323,5.3254,5.3276,5.3343,5.3343,5.3343,5.3343,0.0,0.0,5.3343,5.3343,5.3343,5.3343,5.3343,5.3343,5.3288,5.264,5.199,5.1361,5.1043,5.0913,5.0913,5.0913,5.0913,5.0913,5.0913,5.0913,5.0801,5.0093,4.987,4.9759,4.9109,4.8904,0.0,4.8904,4.8904,4.8904,4.8904,4.8904,4.8904,4.8904,4.8904,4.8904,4.8904,4.8904,4.8904,4.8904,4.8774,4.8665,4.8665,4.746,4.6496,4.6496,4.6366,4.6275,4.6275,4.6141,4.6058,4.6058,4.6072,4.5871,4.5344,4.4606,4.3886,4.3229,4.2481,4.1553,4.0409,4.0192,3.9702,3.887,3.9569,3.9924,3.9913,4.0721,4.1077,4.0968,3.9244,3.8913,0.0,0.0,0.0,0.0,0.0,0.0,0.0,0.0,0.0,0.0,0.0,3.6533,0.0,0.0,4.0844,4.2002,4.3796,4.5454,4.6633,4.7458,4.8034,4.8266,4.8294,4.8748,4.9898,5.0098,5.0479,5.1287,5.1532,5.1933,5.2613,5.2754,5.3083,5.368,5.3704,5.3737,5.3808,5.3808,5.3808,5.3808,5.3808,5.3808,5.3808,5.3808,5.3808,5.3808,5.3808,5.3808,5.3771,5.3362,5.2953,5.2603,5.2603,5.2101,5.1398,5.1398,5.1398,5.1398,5.1398,5.1398,5.1323,5.0894,5.0745,5.0595,4.9759,4.952,4.954,4.9517,4.9499,4.9499,4.9499,4.9499,4.9404,4.8999,4.8904,4.8904,4.8904,4.8904,4.8904,4.8904,4.8904,4.8904,4.8904,4.8238,4.7701,4.7701,4.7367,4.7109,4.7109,4.6756,4.6496,4.6496,4.6496,4.6382,4.6079,4.5368,4.4818,4.4461,4.3694,4.3013,4.2476,4.2452,4.2196,4.167,4.211,4.235,4.235,4.3238,4.3612,4.3534,4.3176,4.2727,0.0,0.0,0.0,0.0,0.0,0.0,0.0,0.0,3.5585,3.5585,3.793,3.9976,3.9976,4.1769,4.3491,4.4234,4.5524,4.6753,4.7716,4.8363,4.8828,4.9092,4.8982,4.9353,5.0538,5.0686,5.1193,5.2377,5.2548,5.2747,5.3101,5.3172,5.3334,5.3591,5.3616,5.3667,5.3774,5.3798,5.3808,5.3808,5.3808,5.3808,5.3808,5.3808,5.3808,5.3808,5.3808,5.3808,5.3808,5.3808,5.3808,5.3808,5.3808,5.3009,5.1878,5.1878,5.1878,5.1878,5.1878,5.1878,5.1841,5.1676,5.1637,5.147,5.0613,5.0392,5.0413,5.0372,5.0351,5.0351,5.0351,5.0351,5.0186,4.9536,4.9387,4.9387,4.9387,4.9241,4.9127,4.9127,4.9016,4.8904,4.8904,4.8904,4.8904,4.8904,4.8349,4.7922,4.7922,4.7367,4.6977,4.6977,4.6977,4.6938,4.6839,4.6163,4.5738,4.5738,4.5066,4.4656,4.4595,4.4589,4.4556,4.449,4.4539,4.4568,4.4568,4.5325,4.5679,4.5631,4.6441,4.5985,3.4325,3.4258,3.4005,3.3303,3.4213,3.529,0.0,0.0,3.8788,3.8788,4.0716,4.24,4.24,4.374,4.5089,4.5814,4.6689,4.7772,4.9236,4.9514,4.9836,5.057,5.0025,5.0024,5.1109,5.1326,5.1645,5.2278,5.2439,5.2618,5.2825,5.2847,5.2988,5.3254,5.3305,5.3464,5.3702,5.3778,5.3808,5.3808,5.3808,5.3808,5.3808,5.3808,5.3808,5.3808,5.3808,5.3808,5.3808,5.3808,5.3808,5.3808,5.3808,5.3696,5.3529,5.3529,5.3529,5.3529,5.3529,5.3529,5.3418,5.2696,5.2473,5.2303,5.1507,5.1266,5.1266,5.1266,5.1247,5.1247,5.1247,5.1247,5.1228,5.1138,5.1119,5.1119,5.1119,5.0504,4.9979,4.9979,4.9387,4.8904,4.8904,4.8904,4.8904,4.8904,4.8814,4.8774,4.8774,4.8684,4.8628,4.8628,4.8628,4.8365,4.7725,4.6992,4.6573,4.6573,4.6461,4.6388,4.6324,4.6322,4.6284,4.6217,4.6223,4.6228,4.6228,4.6331,4.6386,4.6397,4.7194,4.7097,3.4866,3.5006,0.0,0.0,3.6356,3.7835,3.7835,3.9642,4.1347,4.1347,4.2825,4.4144,4.4144,4.5396,4.6537,0.0,4.7927,4.8955,4.9605,5.0096,5.0518,5.0866,5.0602,5.0612,5.1122,5.122,5.1457,5.1917,5.2153,5.2386,5.2665,5.2833,5.3015,5.3246,5.3357,5.3723,5.4386,5.4458,5.4702,5.5142,5.5142,5.5142,5.5123,5.4644,5.4214,5.3808,5.3808,5.3808,5.3808,5.3808,5.3808,5.3808,5.3808,5.3808,5.3808,5.3808,5.3808,5.3808,5.3808,5.3808,5.3734,5.3418,5.3309,5.3142,5.2345,5.2104,5.2104,5.2104,5.2104,5.2104,5.2104,5.2104,5.1974,5.1509,5.1398,5.1398,5.1398,5.1119,5.0857,5.0857,5.0578,5.0355,5.0355,4.9926,4.9592,4.9592,4.9202,4.8904,4.8904,4.8904,4.8904,4.8904,4.8904,4.8771,4.8475,4.8157,4.7973,4.7973,4.7973,4.7975,4.7942,4.7938,4.7923,4.7908,4.7904,4.7904,4.7904,4.7904,4.7904,4.7904,4.8238,4.8221,3.5768,0.0,0.0,3.6998,3.8525,3.9996,4.0207,4.1912,4.3424,4.3424,4.4474,4.5401,4.5401,4.6502,0.0,4.7678,4.8829,4.9784,4.9991,5.0532,5.0901,5.0901,5.0901,5.0941,5.1032,5.1075,5.1277,5.1665,5.1874,5.2132,5.2492,5.2694,5.3003,5.3429,5.3605,5.4153,5.5107,5.5233,5.5578,5.6095,5.6095,5.6095,5.6077,5.5262,5.4619,5.4099,5.3876,5.3762,5.3765,5.3793,5.3808,5.3808,5.3808,5.3808,5.3808,5.3808,5.3808,5.3808,5.3808,5.3808,5.3808,5.3808,5.3808,5.3696,5.3102,5.2935,5.2935,5.2935,5.2935,5.2935,5.2935,5.2935,5.2789,5.2194,5.2064,5.2064,5.2064,5.1881,5.1732,5.1732,5.1546,5.1398,5.1398,5.0875,5.0465,5.0465,4.9963,4.9424,4.896,4.8904,4.8904,4.8904,4.8904,4.8904,4.8904,4.8904,4.8904,4.8904,4.8904,4.8904,4.8904,4.8904,4.8904,4.8904,4.8904,4.8904,4.8904,4.8904,4.8904,4.8904,4.8904,4.9037,0.0,0.0,3.8404,3.9973,4.0945,4.1739,4.2526,4.3916,4.5024,4.5024,4.5647,4.6161,4.6161,4.6844,4.7625,4.8347,4.9156,4.9973,5.0743,5.0883,5.0901,5.0901,5.0901,5.0901,0.0,5.1022,5.1277,5.1665,5.1706,5.1898,5.229,5.232,5.2769,5.3747,5.4039,5.4652,5.568,5.5931,5.6079,5.6095,5.6095,5.6095,5.6077,5.5262,5.4891,5.482,5.4042,5.369,5.3716,5.3765,5.3808,5.3808,5.3808,5.3808,5.3808,5.3808,5.3808,5.3808,5.3808,5.3808,5.3808,5.3808,5.3808,5.3808,5.3771,5.3768,5.3768,5.3768,5.3768,5.3768,5.3768,5.3768,5.3768,5.3731,5.3731,5.3731,5.3731,5.3102,5.2563,5.2563,5.1934,5.1398,5.1398,5.1381,5.1361,5.1361,5.1342,5.0748,4.9109,4.8904,4.8904,4.8904,4.8904,4.8904,4.8904,4.8904,4.8904,4.8904,4.8904,4.8904,4.8904,4.8904,4.8904,4.8904,4.8904,4.8904,4.8904,4.8904,4.8904,4.8904,4.8904,4.9352,0.0,0.0,4.0689,4.1762,4.2988,4.3989,4.4267,4.5103,4.5834,4.5834,4.6021,4.6193,4.6193,4.7259,4.8213,4.8469,4.9623,5.0585,5.0866,5.0901,5.0901,5.0901,5.0901,0.0,0.0,0.0,0.0,5.1296,5.1467,5.1916,5.2723,5.3024,5.3644,5.4703,5.4982,5.5623,5.668,5.6834,5.7133,5.7613,5.7538,5.7245,5.6758,5.648,5.6115,5.5648,5.4854,5.45,5.4452,5.3985,5.3808,5.3808,5.3808,5.3808,5.3808,5.3808,5.3808,5.3808,5.3808,5.3808,5.3808,5.3808,5.3808,5.3808,5.3808,5.3808,5.3808,5.3808,5.3808,5.3808,5.3808,5.3808,5.3808,5.3808,5.3808,5.3808,5.3808,5.3585,5.3399,5.3399,5.3179,5.2991,5.2991,5.2547,5.2027,5.1472,5.0913,5.0335,4.9777,4.9239,4.8904,4.8904,4.8904,4.8904,4.8904,4.8904,4.8904,4.8904,4.8904,4.8904,4.8904,4.8904,4.8904,4.8904,4.8904,4.8904,4.8904,4.8904,4.9204,4.9763,4.9722,5.0167,3.9821,4.1055,4.2283,4.3354,4.4375,4.5165,4.5422,4.5855,4.6193,4.6193,4.5986,4.5887,4.6144,4.7004,4.7873,4.8438,4.9627,5.0567,5.0866,5.0901,5.0901,5.0901,5.0901,0.0,0.0,0.0,0.0,5.1085,5.1494,5.207,5.2825,5.3415,5.4203,5.5242,5.5573,5.6268,5.7324,5.7482,5.7806,5.8332,5.8296,5.8024,5.7554,5.728,5.6892,5.6443,5.5626,5.5256,5.5209,5.4506,5.4235,5.4198,5.3917,5.3808,5.3808,5.3808,5.3808,5.3808,5.3808,5.3808,5.3808,5.3808,5.3808,5.3808,5.3808,5.3808,5.3808,5.3808,5.3808,5.3808,5.3808,5.3808,5.3808,5.3808,5.3808,5.3808,5.3808,5.3808,5.3808,5.3808,5.3808,5.3808,5.3808,5.3362,5.2844,5.2345,5.1542,5.0892,5.0595,4.9833,4.9443,4.9759,4.9517,4.9443,4.9761,4.9796,4.9796,4.9796,4.9796,4.9796,4.9796,4.9796,4.9796,4.9796,4.9796,4.9796,4.9796,4.9796,5.0079,5.062,5.0578,5.1022,4.13,4.2318,4.3281,4.4779,4.5165,4.5337,4.6042,4.6161,4.6144,4.6144,4.5559,4.5247,0.0,0.0,4.6711,4.8275,4.9198,4.9973,5.0799,5.0901,5.0901,0.0,0.0,0.0,0.0,0.0,0.0,5.1181,0.0,5.2348,5.2685,5.3569,5.4487,5.5426,5.5841,5.6563,5.7586,5.7875,5.8057,5.8191,5.833,5.8388,5.8377,5.7617,5.7269,5.7219,5.6341,5.5966,5.5918,5.5304,5.5054,5.4975,5.416,5.3849,5.3856,5.3817,5.3803,5.3808,5.3808,5.3808,5.3808,5.3808,5.3808,5.3808,5.3808,5.3808,5.3808,5.3808,5.3808,5.3808,5.3808,5.3808,5.3808,5.3808,5.3808,5.3808,5.3808,5.3808,5.3808,5.3808,5.3808,5.3808,5.3808,5.3808,5.3808,5.3808,5.3142,5.2361,5.1565,5.0706,5.0483,5.1305,5.0653,5.0502,5.1323,5.1398,5.1398,5.1398,5.1398,5.1398,5.1398,5.1398,5.1398,5.1398,5.1398,5.1398,5.1398,5.1398,5.1416,5.1454,5.1454,5.1881,4.2886,4.3904,4.4741,4.5673,4.5919,4.5975,4.6158,4.5764,4.5372,4.5372,4.4744,4.4258,0.0,0.0,0.0,4.7541,4.8829,0.0,5.0799,5.0901,0.0,0.0,0.0,5.1122,5.1674,5.1723,0.0,0.0,5.2387,5.2744,5.4023,5.4597,5.5319,5.6256,5.6689,5.7123,5.7601,5.7875,5.8014,5.8048,5.8188,5.8292,5.8396,5.8193,5.8125,5.8127,5.7294,5.689,5.6749,5.6096,5.577,5.5598,5.4782,5.4523,5.454,5.3947,5.3759,5.3808,5.3808,5.3808,5.3808,5.3808,5.3808,5.3808,5.3808,5.3808,5.3808,5.3808,5.3808,5.3808,5.3808,5.3808,5.3808,5.3808,5.3808,5.3808,5.3808,5.3808,5.3808,5.3808,5.3808,5.3808,5.3808,5.3808,5.3808,5.3808,5.3622,5.3195,5.2399,5.1584,5.1156,5.1381,5.1191,5.1154,5.1381,5.1398,5.1398,5.1398,5.1398,5.1398,5.1398,5.1398,5.1398,5.1398,5.1398,5.1398,5.1398,5.1398,5.1714,5.2287,5.2287,5.2733,4.41,4.4986,4.5679,4.6094,4.6193,4.6112,4.5781,4.5408,4.4902,4.4234,4.3445,0.0,0.0,0.0,0.0,0.0,0.0,0.0,5.0743,5.0901,5.102,0.0,5.1382,0.0,5.2453,5.2523,5.2843,0.0,5.3321,5.3528,5.4411,5.5076,5.5689,5.6272,5.6655,5.7023,5.7412,5.7747,5.7918,5.7921,5.8172,5.8305,5.8303,5.8371,5.8383,5.8338,0.0,5.7624,5.7446,5.6749,5.6404,5.625,5.5455,5.5261,5.537,5.4926,5.481,5.4832,5.4455,5.4325,5.427,5.3917,5.3808,5.3808,5.3808,5.3808,5.3808,5.3808,5.3808,5.3808,5.3808,5.3808,5.3808,5.3808,5.3808,5.3808,5.3808,5.3808,5.3808,5.3808,5.3808,5.3808,5.3808,5.3808,5.3808,5.3808,5.3808,5.3638,5.3179,5.2417,5.2064,5.2417,5.2138,5.2067,5.2417,5.2454,5.2454,5.2454,5.2454,5.2454,5.2454,5.2454,5.2454,5.2454,5.2454,5.2454,5.2454,5.2454,5.2696,5.3139,5.3139,5.3362,4.5024,4.5714,4.6193,4.6193,4.6126,4.5887,4.5253,4.4852,4.4255,4.2915,0.0,4.1511,4.221,0.0,4.3582,4.6473,0.0,4.898,5.0511,5.0918,5.1277,5.1912,5.2088,5.2467,5.3275,5.3348,5.3654,5.4394,5.4464,5.4464,5.4464,5.5242,5.5782,5.5961,5.6283,5.6675,5.7178,5.7544,5.7753,5.7777,5.8166,5.8296,5.8183,5.8319,5.8308,5.8174,0.0,0.0,5.7927,5.7286,5.701,5.6939,5.6122,5.5981,5.6218,5.6109,5.617,5.6185,5.5424,5.5161,5.5013,5.4103,5.3808,5.3808,5.3808,5.3808,5.3808,5.3808,5.3808,5.3808,5.3808,5.3808,5.3808,5.3808,5.3808,5.3808,5.3808,5.3808,5.3808,5.3808,5.3808,5.3808,5.3808,5.3808,5.3808,5.3808,5.3808,5.3808,5.3808,5.3195,5.303,5.3731,5.3179,5.3046,5.3734,5.3808,5.3808,5.3808,5.3808,5.3808,5.3808,5.3808,5.3808,5.3808,5.3808,5.3808,5.3808,5.3808,5.3808,5.3808,5.3808,5.3808,4.5817,4.6109,4.6193,4.6193,4.5749,4.5267,4.513,4.3603,0.0,0.0,0.0,3.9733,3.9873,4.0947,0.0,4.4208,0.0,0.0,0.0,0.0,5.1863,0.0,0.0,0.0,0.0,0.0,0.0,0.0,0.0,0.0,5.5282,5.5559,5.5886,5.6297,5.6575,5.6827,5.7038,5.7317,5.7531,5.7643,5.7936,5.8051,5.8037,5.8174,5.8163,5.8031,5.8031,0.0,5.7827,5.7701,5.7634,5.756,5.6764,5.664,5.6858,5.6172,5.6085,5.6283,5.6132,5.6076,5.5814,5.4309,5.3808,5.3808,5.3808,5.3808,5.3808,5.3808,5.3808,5.3808,5.3808,5.3808,5.3808,5.3808,5.3808,5.3808,5.3808,5.3808,5.3808,5.3808,5.3808,5.3808,5.3808,5.3808,5.3808,5.3808,5.3808,5.3808,5.3808,5.3678,5.3659,5.3787,5.3678,5.3659,5.3787,5.3808,5.3808,5.3808,5.3808,5.3808,5.3808,5.3808,5.3808,5.3808,5.3808,5.3808,5.3808,5.3808,5.3808,5.3808,5.3808,5.3808,4.6109,4.6193,4.6193,4.6193,4.5644,4.4884,4.4091,0.0,0.0,0.0,0.0,3.868,3.868,0.0,0.0,0.0,0.0,0.0,0.0,0.0,0.0,0.0,0.0,0.0,0.0,0.0,0.0,0.0,0.0,0.0,5.5496,5.5685,5.5918,5.6123,5.6568,5.6794,5.6788,5.7137,5.7282,5.7282,5.7565,5.7655,5.7592,5.7724,5.7712,5.7592,5.7658,0.0,5.7601,5.767,5.7777,5.7873,5.7485,5.7521,5.7772,5.7402,5.7381,5.7485,5.7077,5.6928,5.6726,5.5498,5.4792,5.4418,5.4418,5.4121,5.3808,5.3808,5.3808,5.3808,5.3808,5.3808,5.3808,5.3808,5.3808,5.3808,5.3808,5.3808,5.3808,5.3808,5.3808,5.3808,5.3808,5.3808,5.3808,5.3808,5.3808,5.3808,5.3808,5.3808,5.3808,5.3808,5.3808,5.3808,5.3808,5.3808,5.3808,5.3808,5.3808,5.3808,5.3808,5.3808,5.3808,5.3808,5.3808,5.3808,5.3808,5.3808,5.3808,5.3808,5.3808,5.3808,4.6158,4.6193,4.6193,4.6193,4.5524,4.448,4.3105,4.1929,0.0,0.0,0.0,3.7863,0.0,0.0,0.0,0.0,0.0,0.0,0.0,0.0,0.0,0.0,0.0,0.0,0.0,0.0,0.0,0.0,0.0,0.0,5.5496,5.5728,5.5858,5.5858,5.6385,5.6626,5.6512,5.6857,5.6996,5.6918,5.7165,5.7225,5.7112,5.7276,5.7292,5.7219,5.7332,0.0,0.0,5.7604,5.7795,5.804,5.804,5.8222,5.8503,5.8503,5.8574,5.8616,5.7987,5.7761,5.7653,5.7021,5.6111,5.5273,5.5273,5.4846,5.4346,5.4346,5.4198,5.4065,5.4065,5.3938,5.3808,5.3808,5.3808,5.3808,5.3808,5.3808,5.3808,5.3808,5.3808,5.3808,5.3808,5.3808,5.3808,5.3808,5.3808,5.3808,5.3808,5.3808,5.3808,5.3808,5.3808,5.3808,5.3808,5.3808,5.3808,5.3808,5.3808,5.3808,5.3808,5.3808,5.3808,5.3808,5.3808,5.3808,5.3808,5.3808,5.3808,5.3808,5.3808,5.3808,4.6024,4.6193,4.6193,4.6193,4.5106,4.3799,4.2985,0.0,0.0,0.0,3.7572,3.7108,3.7108,0.0,0.0,0.0,0.0,0.0,0.0,0.0,0.0,0.0,0.0,0.0,0.0,0.0,0.0,0.0,0.0,0.0,0.0,5.564,5.5717,5.5717,5.6071,5.6256,5.6242,5.6383,5.6526,5.6647,5.6781,5.685,5.6843,5.7108,5.7204,5.7219,5.7332,0.0,0.0,5.7774,5.7945,5.8183,5.8183,5.8312,5.8503,5.8503,5.8574,5.869,5.8616,5.8597,5.8579,5.8504,5.7448,5.6188,5.6188,5.6132,5.6076,5.6076,5.5498,5.4883,5.4883,5.4344,5.3808,5.3808,5.3808,5.3808,5.3808,5.3808,5.3808,5.3808,5.3808,5.3808,5.3808,5.3808,5.3808,5.3808,5.3808,5.3808,5.3808,5.3808,5.3808,5.3808,5.3808,5.3808,5.3808,5.3808,5.3808,5.3808,5.3808,5.3808,5.3808,5.3808,5.3808,5.3808,5.3808,5.3808,5.3808,5.3808,5.3808,5.3808,5.3808,5.3808,4.5454,4.5866,4.6193,4.6193,4.5033,4.3573,4.2356,0.0,0.0,3.7697,3.7193,3.7005,3.7005,3.8251,0.0,0.0,0.0,0.0,0.0,0.0,0.0,0.0,0.0,0.0,0.0,0.0,0.0,0.0,0.0,0.0,0.0,5.5629,5.5695,5.5695,5.6021,5.6137,5.6021,5.6193,5.6304,5.6359,5.6492,5.6632,5.6807,5.6984,5.7116,5.7219,5.7332,0.0,0.0,5.7845,5.8074,5.8314,5.8362,5.8486,5.8622,5.8622,5.8654,5.8709,5.8709,5.8709,5.8709,5.8709,5.8263,5.7653,5.717,5.6687,5.6299,5.6299,5.6058,5.5777,5.5777,5.5535,5.5296,5.5296,5.5296,5.5296,5.5296,5.5296,5.5296,5.5296,5.4885,5.4511,5.4511,5.4121,5.3808,5.3808,5.3808,5.3808,5.3808,5.3808,5.3808,5.3808,5.3808,5.3808,5.3808,5.3808,5.3808,5.3808,5.3808,5.3808,5.3808,5.3808,5.3808,5.3808,5.3808,5.3808,5.3808,5.3808,5.3808,5.3808,5.3808,5.4065,4.4624,4.5124,4.5518,4.5518,4.4547,4.3169,0.0,0.0,0.0,3.7316,3.7005,3.7005,3.7005,3.8061,3.9212,4.0017,4.2552,4.4755,0.0,0.0,0.0,0.0,0.0,0.0,0.0,0.0,0.0,0.0,0.0,0.0,0.0,5.5582,5.564,5.564,5.5861,5.5922,5.5772,5.5922,5.6003,5.6049,5.6245,5.6475,5.6745,5.6964,5.7122,5.7279,0.0,0.0,0.0,5.7965,5.8214,5.8437,5.8529,5.8619,5.8709,5.8709,5.8709,5.8709,5.8709,5.8709,5.8709,5.8709,5.8709,5.8597,5.8021,5.7467,5.7002,5.7002,5.6838,5.6596,5.6355,5.6299,5.6299,5.6299,5.6299,5.6299,5.6299,5.6299,5.6299,5.6299,5.5795,5.5384,5.5384,5.4697,5.4158,5.4158,5.3954,5.3808,5.3808,5.3808,5.3808,5.3808,5.3808,5.3808,5.3808,5.3808,5.3808,5.3808,5.3808,5.3808,5.3808,5.3808,5.3808,5.3808,5.3808,5.3808,5.3808,5.3808,5.3917,5.4158,5.4158,5.4606,4.3503,4.3927,4.3927,4.3927,4.3354,4.2409,0.0,0.0,0.0,3.7316,3.7005,3.7005,3.7005,3.7607,3.8384,3.9186,4.1292,4.3369,4.4904,0.0,0.0,0.0,0.0,0.0,0.0,0.0,0.0,0.0,0.0,0.0,0.0,5.5496,5.55,5.55,5.55,5.55,5.55,5.55,5.5563,5.5703,5.6039,5.6342,5.662,5.7022,5.7264,0.0,0.0,0.0,0.0,5.8131,5.8318,5.8513,5.8643,5.8709,5.8709,5.8709,5.8709,5.8709,5.8709,5.8709,5.8709,5.8709,5.8709,5.8709,5.869,5.8672,5.8672,5.8672,5.8096,5.7302,5.6503,5.6299,5.6299,5.6299,5.6299,5.6299,5.6299,5.6299,5.6299,5.6299,5.6299,5.6299,5.6299,5.5554,5.4992,5.4992,5.4307,5.3808,5.3808,5.3808,5.3808,5.3808,5.3808,5.3808,5.3808,5.3808,5.3808,5.3808,5.3808,5.3808,5.3808,5.3808,5.3808,5.3808,5.3808,5.3808,5.3808,5.3808,5.4214,5.4992,5.4992,5.5458,4.1917,4.2725,4.3143,4.3143,4.2564,4.1584,4.0022,0.0,0.0,3.7193,3.7005,3.7005,3.7005,3.7604,3.8367,3.9171,4.1277,4.3143,0.0,0.0,0.0,0.0,0.0,0.0,0.0,0.0,0.0,0.0,0.0,0.0,0.0,5.5496,5.5496,5.5496,5.5496,5.5496,5.5496,5.5496,5.5607,5.5836,5.6085,5.6445,5.6879,5.7012,0.0,0.0,0.0,0.0,0.0,5.8062,5.8292,5.8445,5.8635,5.8709,5.8709,5.8709,5.8709,5.8709,5.8709,5.8709,5.8709,5.8709,5.8709,5.8709,5.8709,5.8709,5.8709,5.8709,5.8523,5.8265,5.8005,5.7947,5.7947,5.7947,5.7947,5.7947,5.7947,5.7947,5.7947,5.7947,5.7504,5.7116,5.7116,5.6448,5.5891,5.5891,5.5668,5.5517,5.5517,5.5517,5.5517,5.5517,5.5517,5.5034,5.3901,5.3808,5.3808,5.3808,5.3808,5.3808,5.3808,5.3808,5.4065,5.4604,5.4623,5.4904,5.5517,5.5517,5.5649,5.5907,5.6445,5.6854,0.0,4.0651,4.1105,4.14,4.1105,0.0,0.0,0.0,0.0,0.0,3.7005,3.7005,3.7005,3.7386,3.8038,3.9116,4.1014,4.2707,0.0,0.0,0.0,0.0,0.0,0.0,0.0,0.0,0.0,0.0,0.0,0.0,0.0,0.0,5.5496,5.5496,5.5496,5.5496,5.5496,5.5496,5.5604,5.5822,5.6,5.631,5.6732,5.6861,0.0,0.0,0.0,0.0,0.0,5.8051,5.8295,5.8456,5.8622,5.8709,5.8709,5.8709,5.8709,5.8709,5.8709,5.8709,5.8709,5.8709,5.8709,5.8709,5.8709,5.8709,5.8709,5.8709,5.8709,5.8709,5.8709,5.8709,5.8709,5.8709,5.8709,5.8709,5.8709,5.8709,5.8709,5.8709,5.83,5.795,5.795,5.7281,5.6745,5.6745,5.6485,5.6299,5.6299,5.6299,5.6299,5.6299,5.6299,5.5874,5.4829,5.4736,5.4736,5.4736,5.4736,5.4736,5.4736,5.4736,5.4978,5.5477,5.5498,5.5761,5.6299,5.6596,5.6745,5.6761,5.7578,5.795,0.0,3.7893,3.8191,3.8946,3.9186,3.9013,0.0,0.0,0.0,0.0,0.0,3.7005,3.7005,3.704,3.7577,3.9051,4.0631,4.2216,0.0,0.0,0.0,0.0,0.0,0.0,0.0,0.0,0.0,0.0,0.0,0.0,0.0,5.5496,5.5496,5.5496,5.5496,5.5496,5.5496,5.5496,5.5574,5.5695,5.5822,5.6035,5.6326,5.6624,0.0,0.0,0.0,0.0,0.0,5.8091,5.8326,5.8513,5.8646,5.8709,5.8709,5.8709,5.8709,5.8709,5.8709,5.8709,5.8709,5.8709,5.8709,5.8709,5.8709,5.8709,5.8709,5.8709,5.8709,5.8709,5.8709,5.8709,5.8709,5.8709,5.8709,5.8709,5.8709,5.8709,5.8709,5.8709,5.8709,5.8709,5.8709,5.808,5.7597,5.7597,5.6947,5.6466,5.6466,5.6466,5.6466,5.6466,5.6466,5.6466,5.6466,5.6373,5.6299,5.6299,5.6299,5.6299,5.6299,5.6299,5.6336,5.6373,5.6448,5.6466,5.6466,5.7225,5.7597,5.7597,5.8358,5.8709,3.4238,0.0,3.7298,3.7489,3.7955,3.8173,0.0,0.0,0.0,0.0,0.0,3.7005,3.7005,3.7451,3.8161,3.9134,4.1102,4.3053,0.0,0.0,0.0,0.0,0.0,0.0,0.0,0.0,0.0,0.0,0.0,0.0,0.0,5.5496,5.5496,5.5496,5.5496,5.5496,5.5496,5.5496,5.5574,5.5695,5.5732,5.5975,5.6386,5.6454,0.0,0.0,0.0,0.0,5.7821,5.8139,5.8357,5.8513,5.8646,5.8709,5.8709,5.8709,5.8709,5.8709,5.8709,5.8709,5.8709,5.8709,5.8709,5.8709,5.8709,5.8709,5.8709,5.8709,5.8709,5.8709,5.8709,5.8709,5.8709,5.8709,5.8709,5.8709,5.8709,5.8709,5.8709,5.8709,5.8709,5.8709,5.8709,5.8541,5.8411,5.8411,5.8265,5.8135,5.8135,5.8135,5.8135,5.8135,5.8135,5.8135,5.8135,5.7002,5.6299,5.6299,5.6299,5.6299,5.6299,5.6299,5.6594,5.7209,5.7817,5.8135,5.8135,5.8337,5.8411,5.8411,5.8616,5.8709,3.3297,3.4702,3.6034,3.636,3.7027,3.7484,3.709,0.0,0.0,0.0,0.0,0.0,3.7434,0.0,0.0,4.0174,4.2017,0.0,0.0,0.0,0.0,0.0,0.0,0.0,0.0,0.0,0.0,0.0,0.0,0.0,0.0,5.5496,5.5496,5.5496,5.5496,5.5496,5.5496,5.5496,5.5537,5.5604,5.5677,5.5868,5.6186,5.6393,5.6705,0.0,0.0,0.0,5.8046,5.8292,5.8479,5.8606,5.8667,5.8709,5.8709,5.8709,5.8709,5.8709,5.8709,5.8709,5.8709,5.8709,5.8709,5.8709,5.8709,5.8709,5.8709,5.8709,5.8709,5.8709,5.8709,5.8709,5.8709,5.8709,5.8709,5.8709,5.8709,5.8709,5.8709,5.8709,5.8709,5.8709,5.8709,5.9006,5.9247,5.9247,5.9247,5.9247,5.9247,5.8929,5.8709,5.8709,5.8709,5.8709,5.8709,5.7894,5.7393,5.7393,5.7393,5.7393,5.7393,5.7393,5.7615,5.8043,5.8486,5.8709,5.8709,5.8709,5.8894,5.9247,5.9247,5.947,3.3152,3.3999,3.4885,3.5626,3.6393,3.7005,3.7005,0.0,0.0,0.0,0.0,0.0,0.0,0.0,0.0,0.0,0.0,0.0,0.0,0.0,0.0,0.0,0.0,0.0,0.0,0.0,0.0,0.0,0.0,0.0,0.0,5.5496,5.5496,5.5496,5.5496,5.5496,5.5496,5.5496,5.5496,5.5496,5.5637,5.5782,5.5975,5.6447,5.6892,0.0,0.0,0.0,5.8346,5.8484,5.8604,5.8709,5.8709,5.8709,5.8709,5.8709,5.8709,5.8709,5.8709,5.8709,5.8709,5.8709,5.8709,5.8709,5.8709,5.8709,5.8709,5.8709,5.8709,5.8709,5.8709,5.8709,5.8709,5.8709,5.8709,5.8709,5.8709,5.8802,5.8876,5.8876,5.8987,5.908,5.908,5.9656,6.0099,6.0099,6.0099,6.0099,6.0099,5.9507,5.908,5.908,5.908,5.908,5.908,5.908,5.908,5.908,5.8836,5.8709,5.8709,5.8709,5.8709,5.8709,5.8709,5.8764,5.8876,5.8876,5.93,6.0099,6.0099,6.0492,3.2533,3.3604,3.4885,3.5626,3.6393,3.7005,3.7005,0.0,0.0,0.0,0.0,0.0,0.0,0.0,0.0,0.0,0.0,0.0,0.0,0.0,0.0,0.0,0.0,0.0,0.0,0.0,0.0,0.0,0.0,0.0,0.0,0.0,5.5496,5.5496,5.5496,5.5496,5.5496,5.5496,5.5496,5.5496,5.5637,5.5893,5.6246,5.6727,5.7213,0.0,0.0,5.8319,5.8487,5.8619,5.8674,5.8709,5.8709,5.8709,5.8709,5.8709,5.8709,5.8709,5.8709,5.8709,5.8709,5.8709,5.8709,5.8709,5.8709,5.8709,5.8709,5.8709,5.8709,5.8709,5.8709,5.8709,5.8709,5.8709,5.8709,5.8709,5.8709,5.9245,5.9728,5.9728,6.0306,6.0829,6.0829,6.0922,6.0996,6.0996,6.0996,6.0996,6.0996,6.0884,6.0829,6.0829,6.0829,6.0829,6.0829,6.0829,6.0829,6.0829,5.947,5.8709,5.8709,5.8709,5.8709,5.8709,5.8709,5.9043,5.9728,5.9728,6.0155,6.0996,6.0996,6.107,3.2886,3.3828,3.4885,3.5626,3.6393,3.7108,0.0,0.0,0.0,0.0,0.0,0.0,0.0,0.0,0.0,0.0,0.0,0.0,0.0,0.0,0.0,0.0,0.0,0.0,0.0,0.0,0.0,0.0,0.0,0.0,0.0,0.0,5.5496,5.5496,5.5496,5.5496,5.5496,5.5496,5.5496,5.55,5.5703,5.6046,5.648,5.6988,5.7516,5.8031,0.0,5.8489,5.8617,5.8669,5.8709,5.8709,5.8709,5.8709,5.8709,5.8709,5.8709,5.8709,5.8709,5.8709,5.8709,5.8709,5.8709,5.8709,5.8709,5.8709,5.8783,5.9226,5.9043,5.8802,5.9245,5.9356,5.947,5.9934,6.0049,6.0049,6.0049,6.0343,6.0603,6.0603,6.094,6.12,6.12,6.1553,6.1847,6.1847,6.1847,6.1847,6.1847,6.1479,6.12,6.12,6.12,6.12,6.12,6.12,6.12,6.12,6.0049,5.9356,5.9356,5.8929,5.8892,5.934,5.9356,5.9765,6.0603,6.0603,6.1033,6.1847,6.1847,6.2073,3.3092,3.3966,3.4885,3.5626,0.0,3.7401,0.0,0.0,0.0,0.0,0.0,0.0,0.0,0.0,0.0,0.0,0.0,0.0,0.0,0.0,0.0,0.0,0.0,0.0,0.0,0.0,0.0,0.0,0.0,0.0,0.0,0.0,5.5496,5.5496,5.5496,5.5496,5.5496,5.5496,5.5496,5.55,5.5775,5.6151,5.6626,5.7165,5.7679,5.8172,5.8383,5.8545,5.8651,5.8651,5.8667,5.8709,5.8709,5.8674,5.8651,5.8651,5.8635,5.8641,5.8674,5.8674,5.8656,5.8698,5.8709,5.8709,5.8709,5.8839,5.9115,5.9728,5.9598,5.9436,6.0043,6.0194,6.0378,6.1033,6.12,6.12,6.12,6.1349,6.1479,6.1479,6.1627,6.1757,6.1757,6.2275,6.2683,6.2683,6.2683,6.2683,6.2683,6.2147,6.1757,6.1757,6.1757,6.1757,6.1757,6.1757,6.1757,6.1757,6.0789,6.0194,6.0194,5.9616,5.9584,6.0192,6.0194,6.0622,6.1479,6.1479,6.1887,6.2683,6.2683,6.3018,3.2456,3.3569,3.4885,3.5626,0.0,0.0,0.0,0.0,0.0,0.0,0.0,0.0,0.0,0.0,0.0,0.0,0.0,0.0,0.0,0.0,0.0,0.0,0.0,0.0,0.0,0.0,0.0,0.0,0.0,0.0,0.0,0.0,0.0,5.5496,5.5496,5.5496,5.5496,5.5496,5.5496,5.55,5.5775,5.6151,5.6626,5.7165,5.7628,5.8025,5.8286,5.8454,5.8516,5.8516,5.8596,5.8709,5.8709,5.8627,5.8516,5.8516,5.847,5.845,5.8638,5.8622,5.8532,5.8656,5.8709,5.8709,5.8709,5.9229,5.9839,5.9876,6.0436,6.1033,6.1089,6.1107,6.1126,6.1182,6.12,6.12,6.12,6.1794,6.2312,6.2312,6.2925,6.3426,6.3426,6.3479,6.3516,6.3516,6.3516,6.3516,6.3516,6.3463,6.3426,6.3426,6.3426,6.3426,6.3426,6.3426,6.3426,6.3426,6.1977,6.1107,6.1107,6.1054,6.1054,6.1107,6.1107,6.1497,6.2312,6.2312,6.2739,6.3516,6.3516,6.3535,3.2406,3.3534,3.4885,3.5626,0.0,0.0,0.0,0.0,0.0,0.0,0.0,0.0,0.0,0.0,0.0,0.0,0.0,0.0,0.0,0.0,0.0,0.0,0.0,0.0,0.0,0.0,0.0,0.0,0.0,0.0,0.0,0.0,0.0,5.5496,5.5496,5.5496,5.5496,5.5496,5.5496,5.55,5.5699,5.6007,5.6439,5.6799,5.7243,5.7765,5.8031,5.8204,5.8323,5.8446,5.8527,5.8585,5.8585,5.8519,5.844,5.844,5.8413,5.8409,5.8494,5.8478,5.8445,5.8491,5.8505,5.8518,5.8566,5.9162,5.996,6.0547,6.1312,6.1943,6.1943,6.1943,6.2073,6.2572,6.2683,6.2683,6.2683,6.2925,6.3148,6.3148,6.3389,6.359,6.359,6.359,6.359,6.359,6.359,6.359,6.359,6.359,6.359,6.359,6.359,6.359,6.359,6.359,6.359,6.359,6.2556,6.1943,6.1943,6.1479,6.1442,6.194,6.1943,6.233,6.3148,6.3148,6.3296,6.359,6.359,6.359,3.2673,3.3694,3.4993,0.0,0.0,0.0,0.0,0.0,0.0,0.0,0.0,0.0,0.0,0.0,0.0,0.0,0.0,0.0,0.0,0.0,0.0,0.0,0.0,0.0,0.0,0.0,0.0,0.0,0.0,0.0,0.0,0.0,0.0,0.0,5.5496,5.5496,5.5496,5.5496,5.5496,5.5496,5.5585,5.5836,5.6188,5.6446,5.6861,5.7354,5.7634,5.7862,5.8088,5.8302,5.8438,5.8495,5.8425,5.8388,5.8341,5.8341,5.8319,5.8294,5.8371,5.8371,5.8346,5.8385,5.8396,5.8468,5.8763,5.9462,6.0366,6.1256,6.2138,6.2776,6.2776,6.2776,6.2925,6.346,6.359,6.359,6.359,6.359,6.359,6.359,6.359,6.359,6.359,6.359,6.359,6.359,6.359,6.359,6.359,6.359,6.359,6.359,6.359,6.359,6.359,6.359,6.359,6.359,6.307,6.2776,6.2776,6.2256,6.2219,6.2776,6.2776,6.3052,6.359,6.359,6.359,6.3612,6.3869,6.398,3.3297,3.4085,0.0,0.0,0.0,0.0,0.0,0.0,0.0,0.0,0.0,0.0,0.0,0.0,0.0,0.0,0.0,0.0,0.0,0.0,0.0,0.0,0.0,0.0,0.0,0.0,0.0,0.0,0.0,0.0,0.0,0.0,0.0,0.0,5.5496,5.5496,5.5496,5.5496,5.5496,5.5496,5.5496,5.564,5.5915,5.616,5.6479,5.6811,5.7074,5.7437,5.7815,5.8098,5.8318,5.8476,5.8271,5.82,5.82,5.82,5.8105,5.8034,5.8292,5.8316,5.8217,5.8355,5.8393,5.8541,5.9359,6.0253,6.1159,6.1977,6.2875,6.359,6.359,6.359,6.359,6.359,6.359,6.359,6.359,6.359,6.359,6.359,6.359,6.359,6.359,6.359,6.359,6.359,6.359,6.359,6.359,6.359,6.359,6.359,6.359,6.359,6.359,6.359,6.359,6.359,6.359,6.359,6.359,6.359,6.359,6.359,6.359,6.359,6.3612,6.3612,6.3628,6.3649,6.4445,6.4816,3.3297,3.4464,0.0,0.0,0.0,0.0,0.0,0.0,0.0,0.0,0.0,0.0,0.0,0.0,0.0,0.0,0.0,0.0,0.0,0.0,0.0,0.0,0.0,0.0,0.0,0.0,0.0,0.0,0.0,0.0,0.0,0.0,0.0,0.0,5.5496,5.5496,5.5496,5.5496,5.5496,5.5496,5.5496,5.5585,5.5768,5.5933,5.6247,5.6672,5.7033,5.7366,5.7688,5.8048,5.8242,5.8279,5.8228,5.8131,5.8054,5.8054,5.8031,5.8011,5.8082,5.8082,5.8078,5.8115,5.8129,5.829,5.9191,6.0056,6.0934,6.1913,6.2818,6.3472,6.3571,6.359,6.359,6.359,6.359,6.359,6.359,6.359,6.359,6.359,6.359,6.359,6.359,6.359,6.359,6.359,6.359,6.359,6.359,6.359,6.359,6.359,6.359,6.359,6.359,6.359,6.359,6.359,6.359,6.359,6.359,6.359,6.359,6.359,6.359,6.3888,6.4445,6.4445,6.4761,6.5361,6.5599,6.5711,3.3769,0.0,0.0,0.0,0.0,0.0,0.0,0.0,0.0,0.0,0.0,0.0,0.0,0.0,0.0,0.0,0.0,0.0,0.0,0.0,0.0,0.0,0.0,0.0,0.0,0.0,0.0,0.0,0.0,0.0,0.0,0.0,0.0,0.0,5.5496,5.5496,5.5496,5.5496,5.5496,5.5496,5.5496,5.5563,5.5699,5.5772,5.6067,5.6513,5.7163,5.7598,5.7866,5.8091,5.82,5.8197,5.8146,5.8065,5.7999,5.7999,5.7999,5.7999,5.7999,5.7999,5.7999,5.7999,5.7999,5.8216,5.943,6.0175,6.0888,6.2216,6.2974,6.3432,6.3562,6.359,6.359,6.359,6.359,6.359,6.359,6.359,6.359,6.359,6.359,6.359,6.359,6.359,6.359,6.359,6.359,6.359,6.359,6.359,6.359,6.359,6.359,6.359,6.359,6.359,6.359,6.359,6.359,6.359,6.359,6.359,6.359,6.359,6.3906,6.4315,6.4795,6.5151,6.5581,6.6104,6.6435,6.6584,0.0,0.0,0.0,0.0,0.0,0.0,0.0,0.0,0.0,0.0,0.0,0.0,0.0,0.0,0.0,0.0,0.0,0.0,0.0,0.0,0.0,0.0,0.0,0.0,0.0,0.0,0.0,0.0,0.0,0.0,0.0,0.0,0.0,0.0,5.5496,5.5496,5.5496,5.5496,5.5496,0.0,5.5507,5.5582,5.5717,5.5732,5.5986,5.6474,5.7406,5.7965,5.82,5.82,5.8191,5.8172,5.8045,5.7999,5.7999,5.7999,5.7999,5.7999,5.7999,5.7999,5.7999,5.7999,5.8054,5.8403,5.9936,6.0542,6.104,6.2725,6.329,6.3415,6.3559,6.359,6.359,6.359,6.359,6.359,6.359,6.359,6.359,6.359,6.359,6.359,6.359,6.359,6.359,6.359,6.359,6.359,6.359,6.359,6.359,6.359,6.359,6.359,6.359,6.359,6.359,6.359,6.359,6.359,6.359,6.359,6.3628,6.3702,6.4423,6.4872,6.5039,6.5822,6.6252,6.6345,6.7066,6.7416,0.0,0.0,0.0,0.0,0.0,0.0,0.0,0.0,0.0,0.0,0.0,0.0,0.0,0.0,0.0,0.0,0.0,0.0,0.0,0.0,0.0,0.0,0.0,0.0,0.0,0.0,0.0,0.0,0.0,0.0,0.0,0.0,0.0,5.5496,5.5496,5.5496,5.5496,5.5496,5.5496,0.0,5.5604,5.5728,5.5861,5.6025,5.6541,5.7336,5.7771,5.8045,5.82,5.82,5.8143,5.8037,5.8011,5.7999,5.7999,5.7999,5.7999,5.7999,5.7999,5.7999,5.7999,5.7999,5.8434,5.912,6.0098,6.0862,6.1636,6.2865,6.3222,6.3299,6.3537,6.359,6.359,6.359,6.359,6.359,6.359,6.359,6.359,6.359,6.359,6.359,6.359,6.359,6.359,6.359,6.359,6.359,6.359,6.359,6.359,6.359,6.359,6.359,6.359,6.359,6.359,6.359,6.359,6.359,6.359,6.359,6.3906,6.4538,6.4702,6.5448,6.6766,6.6952,6.7364,6.7992,6.8159,6.8233,0.0,0.0,0.0,0.0,0.0,0.0,0.0,0.0,0.0,0.0,0.0,0.0,0.0,0.0,0.0,0.0,0.0,0.0,0.0,0.0,0.0,0.0,0.0,0.0,0.0,0.0,0.0,0.0,0.0,0.0,0.0,5.4938,5.4938,5.4938,5.5303,5.5496,5.5496,5.5496,5.5496,5.5496,5.5637,5.5911,5.6333,5.6642,5.7159,5.7807,5.8109,5.8272,5.8342,5.8308,5.8214,5.8098,5.8022,5.7999,5.7999,5.7999,5.7999,5.7999,5.7999,5.7999,5.7999,5.7999,5.8538,5.9358,6.0153,6.097,6.1817,6.2896,6.3201,6.326,6.3528,6.359,6.359,6.359,6.359,6.359,6.359,6.359,6.359,6.359,6.359,6.359,6.359,6.359,6.359,6.359,6.359,6.359,6.359,6.359,6.359,6.359,6.359,6.359,6.359,6.359,6.359,6.359,6.3962,6.4166,6.4166,6.4578,6.4798,6.4795,6.5596,6.6432,6.7308,6.7695,6.8085,6.8493,6.8493,6.8493,0.0,0.0,0.0,0.0,0.0,0.0,0.0,0.0,0.0,0.0,0.0,0.0,0.0,0.0,0.0,0.0,0.0,0.0,0.0,0.0,0.0,0.0,0.0,0.0,0.0,0.0,0.0,0.0,0.0,0.0,5.4117,5.4117,5.4117,5.4117,5.4766,5.5096,5.5096,5.5096,5.5167,5.5307,5.565,5.6189,5.6886,5.7294,5.7679,5.8051,5.8365,5.8492,5.8486,5.8413,5.8316,5.8142,5.804,5.7999,5.7999,5.7999,5.7999,5.7999,5.7999,5.7999,5.7999,5.7999,5.8633,5.9523,6.0193,6.1058,6.1998,6.2948,6.3201,6.326,6.3528,6.359,6.359,6.359,6.359,6.359,6.359,6.359,6.359,6.359,6.359,6.359,6.359,6.359,6.359,6.359,6.359,6.359,6.359,6.372,6.3813,6.3813,6.3943,6.4036,6.4036,6.4036,6.4036,6.4036,6.4668,6.5021,6.5021,6.5859,6.5971,6.5243,6.6584,6.7364,6.7512,6.8178,6.8493,6.8493,6.8493,6.8493,0.0,0.0,0.0,0.0,0.0,0.0,0.0,0.0,0.0,0.0,0.0,0.0,0.0,0.0,0.0,0.0,0.0,0.0,0.0,0.0,0.0,0.0,0.0,0.0,0.0,0.0,0.0,0.0,0.0,0.0,5.3348,5.3348,5.3348,5.3348,5.345,5.3503,5.3503,5.3503,5.3829,5.4472,5.5723,5.6595,5.715,5.755,5.7891,5.8188,5.8398,5.847,5.8415,5.8401,5.8247,5.8022,5.8008,5.7999,5.7999,5.7999,5.7999,5.7999,5.7999,5.7999,5.7999,5.7999,5.9024,6.0266,6.0376,6.1456,6.272,6.3092,6.3201,6.326,6.3528,6.359,6.359,6.359,6.359,6.359,6.359,6.359,6.359,6.359,6.359,6.359,6.359,6.359,6.359,6.359,6.359,6.359,6.359,6.4203,6.4646,6.4646,6.5321,6.5769,6.5769,6.5769,6.5769,6.5769,6.5878,6.5933,6.5933,6.6716,6.7085,6.6974,6.7196,6.7642,6.8345,6.8456,6.8493,6.8493,6.8493,6.8493,0.0,0.0,0.0,0.0,0.0,0.0,0.0,0.0,0.0,0.0,0.0,0.0,0.0,0.0,0.0,0.0,0.0,0.0,0.0,0.0,0.0,0.0,0.0,0.0,0.0,0.0,0.0,0.0,0.0,5.2523,5.2523,5.2523,5.2523,5.2523,5.2955,5.319,5.319,5.319,5.3391,5.3806,5.5027,5.5863,5.6333,5.7267,5.7921,5.833,5.8451,5.8529,5.8561,5.8497,5.8392,5.8272,5.8245,5.8183,5.8102,5.8102,5.8057,5.7999,5.7999,5.7999,5.7999,5.7999,5.9098,6.0395,6.0395,6.1587,6.295,6.3153,6.3254,6.3354,6.3548,6.359,6.359,6.359,6.359,6.359,6.359,6.359,6.359,6.359,6.359,6.359,6.359,6.359,6.359,6.359,6.359,6.376,6.4203,6.4572,6.4983,6.5488,6.5878,6.6104,6.6104,6.6104,6.6104,6.6104,6.6528,6.6772,6.6772,6.7549,6.7976,6.7976,6.7976,6.8141,6.8493,6.8493,6.8493,6.8493,6.8493,6.8493,0.0,0.0,0.0,0.0,0.0,0.0,0.0,0.0,0.0,0.0,0.0,0.0,0.0,0.0,0.0,0.0,0.0,0.0,0.0,0.0,0.0,0.0,0.0,0.0,0.0,0.0,0.0,0.0,0.0,5.1723,5.1723,5.1723,5.1723,5.1723,5.2302,5.2628,5.2628,5.2801,5.2965,5.3104,5.4157,5.4953,5.5593,5.6681,5.7594,5.8316,5.8449,5.8551,5.864,5.8537,5.8487,5.8473,5.8429,5.8344,5.8247,5.8247,5.8169,5.8048,5.8048,5.8025,5.7999,5.7999,5.9103,6.0449,6.0449,6.1663,6.3078,6.3219,6.3328,6.3432,6.3562,6.359,6.359,6.359,6.359,6.359,6.359,6.359,6.359,6.359,6.359,6.359,6.359,6.359,6.3668,6.3869,6.3906,6.4203,6.5021,6.5318,6.5671,6.6345,6.6586,6.6716,6.6716,6.6716,6.6716,6.6716,6.7271,6.7605,6.7605,6.8178,6.8493,6.8493,6.8493,6.8493,6.8493,6.8493,6.8493,6.8493,6.8493,6.8493,0.0,0.0,0.0,0.0,0.0,0.0,0.0,0.0,0.0,0.0,0.0,0.0,0.0,0.0,0.0,0.0,0.0,0.0,0.0,0.0,0.0,0.0,0.0,0.0,0.0,0.0,0.0,0.0,0.0,5.0953,5.0953,5.0953,5.0953,5.0953,5.1006,5.1024,5.1024,5.1709,5.2132,5.2269,5.322,5.4279,5.5423,5.5884,5.6782,5.804,5.8359,5.8505,5.8511,5.8505,5.8459,5.8401,5.8399,5.8393,5.8385,5.8385,5.8292,5.8188,5.8188,5.8118,5.7999,5.7999,5.917,6.0599,6.0599,6.1815,6.3222,6.3357,6.3398,6.3432,6.3562,6.359,6.359,6.359,6.359,6.359,6.359,6.359,6.359,6.359,6.359,6.359,6.359,6.359,6.3869,6.4631,6.4739,6.5058,6.5918,6.6695,6.7196,6.7231,6.7918,6.8382,6.8382,6.8382,6.8382,6.8382,6.8419,6.8438,6.8438,6.8475,6.8493,6.8493,6.8493,6.8493,6.8493,6.8493,6.8493,6.8493,6.8493,6.8493,0.0,0.0,0.0,0.0,0.0,0.0,0.0,0.0,0.0,0.0,0.0,0.0,0.0,0.0,0.0,0.0,0.0,0.0,0.0,0.0,0.0,0.0,0.0,0.0,0.0,0.0,0.0,0.0,0.0,0.0,5.0901,5.0901,5.0901,5.0901,5.0901,5.0901,5.0901,5.1157,5.1325,5.1379,5.2265,5.3368,5.4599,5.5468,5.6649,5.8014,5.832,5.8516,5.863,5.863,5.8606,5.859,5.859,5.8548,5.8462,5.8462,5.8413,5.8321,5.8225,5.8172,5.8135,5.8135,5.9257,6.0622,6.0701,6.1949,6.3345,6.3392,6.3455,6.3542,6.3582,6.359,6.359,6.359,6.359,6.359,6.359,6.359,6.359,6.359,6.359,6.359,6.359,6.4036,6.4463,6.4758,6.5281,6.5933,6.6751,6.7122,6.7491,6.8011,6.8326,6.8493,6.8493,6.8493,6.8493,6.8493,6.8493,6.8493,6.8493,6.8493,6.8493,6.8493,6.8493,6.8493,6.8493,6.8493,6.8493,6.8493,6.8493,6.8493,3.0845,0.0,0.0,0.0,0.0,0.0,0.0,0.0,0.0,0.0,0.0,0.0,0.0,0.0,0.0,0.0,0.0,0.0,0.0,0.0,0.0,0.0,0.0,0.0,0.0,0.0,0.0,0.0,0.0,0.0,5.0901,5.0901,5.0901,5.0901,5.0901,5.0901,5.0901,5.0901,5.0901,5.0904,5.1484,5.2547,5.403,5.4927,5.6282,5.7956,5.8256,5.8505,5.8709,5.8709,5.8709,5.8709,5.8709,5.8643,5.8561,5.8561,5.851,5.8421,5.8323,5.8292,5.8261,5.8261,5.9398,6.0744,6.0839,6.2076,6.3464,6.3464,6.3534,6.359,6.359,6.359,6.359,6.359,6.359,6.359,6.359,6.359,6.359,6.359,6.359,6.3683,6.3962,6.4445,6.4983,6.5559,6.6138,6.6788,6.7605,6.7698,6.7902,6.8438,6.8493,6.8493,6.8493,6.8493,6.8493,6.8493,6.8493,6.8493,6.8493,6.8493,6.8493,6.8493,6.8493,6.8493,6.8493,6.8493,6.8493,6.8493,6.8493,6.8493,0.0,0.0,0.0,0.0,0.0,0.0,0.0,0.0,0.0,0.0,0.0,0.0,0.0,0.0,0.0,0.0,0.0,0.0,0.0,0.0,0.0,0.0,0.0,0.0,0.0,0.0,0.0,0.0,0.0,5.0901,5.0901,5.0901,5.0901,5.0901,5.0901,5.0901,5.0901,5.0901,5.0901,5.0901,5.0901,5.1908,5.3786,5.4209,5.5631,5.78,5.8225,5.8505,5.8709,5.8709,5.8709,5.8709,5.8709,5.8709,5.8709,5.8709,5.8619,5.8508,5.8503,5.8454,5.8417,5.8438,5.9608,6.1014,6.1035,6.2244,6.359,6.359,6.359,6.359,6.359,6.359,6.359,6.359,6.359,6.359,6.359,6.359,6.359,6.359,6.3628,6.3888,6.4665,6.4835,6.5429,6.7066,6.7323,6.7621,6.8401,6.8493,6.8493,6.8493,6.8493,6.8493,6.8493,6.8493,6.8493,6.8493,6.8493,6.8493,6.8493,6.8493,6.8493,6.8493,6.8493,6.8493,6.8493,6.8493,6.8493,6.8493,6.8493,6.8493,3.0847,0.0,0.0,0.0,0.0,0.0,0.0,0.0,0.0,0.0,0.0,0.0,0.0,0.0,0.0,0.0,0.0,0.0,0.0,0.0,0.0,0.0,0.0,0.0,0.0,0.0,0.0,0.0,5.0901,5.0901,5.0901,5.0901,5.0901,5.0901,5.0901,5.0901,5.0901,5.0901,5.0901,5.0901,5.0901,5.1636,5.3047,5.3964,5.532,5.6985,5.797,5.8505,5.8709,5.8709,5.8709,5.8709,5.8709,5.8709,5.8709,5.8709,5.8688,5.8633,5.8529,5.8484,5.8571,5.9205,6.0134,6.1123,6.1816,6.2754,6.359,6.359,6.359,6.359,6.359,6.359,6.359,6.359,6.359,6.359,6.359,6.359,6.359,6.359,6.4073,6.4538,6.4758,6.5801,6.6769,6.7231,6.7806,6.8252,6.8475,6.8493,6.8493,6.8493,6.8493,6.8493,6.8493,6.8493,6.8493,6.8493,6.8493,6.8493,6.8493,6.8493,6.8493,6.8493,6.8493,6.8493,6.8493,6.8493,6.8493,6.8493,6.8493,6.8493,3.1374,0.0,0.0,0.0,0.0,0.0,3.7991,3.953,0.0,0.0,0.0,0.0,0.0,0.0,0.0,0.0,0.0,0.0,0.0,0.0,0.0,0.0,0.0,0.0,0.0,0.0,0.0,5.0901,5.0901,5.0901,5.0901,5.0901,5.0901,5.0901,5.0901,5.0901,5.0901,5.0901,5.0901,5.0901,5.0901,5.153,5.2737,5.3878,5.5196,5.6664,5.7881,5.8505,5.8709,5.8709,5.8709,5.8709,5.8709,5.8709,5.8709,5.8709,5.8709,5.8698,5.8617,5.8574,5.872,5.9563,6.0397,6.1248,6.2125,6.2962,6.359,6.359,6.359,6.359,6.359,6.359,6.359,6.359,6.359,6.359,6.359,6.359,6.359,6.359,6.4256,6.4925,6.5281,6.6432,6.7416,6.7751,6.8196,6.8493,6.8493,6.8493,6.8493,6.8493,6.8493,6.8493,6.8493,6.8493,6.8493,6.8493,6.8493,6.8493,6.8493,6.8493,6.8493,6.8493,6.8493,6.8493,6.8493,6.8493,6.8493,6.8493,6.8493,6.8493,3.2445,0.0,0.0,0.0,0.0,0.0,3.6541,3.8058,3.9575,0.0,0.0,0.0,0.0,0.0,0.0,0.0,0.0,0.0,0.0,0.0,0.0,0.0,0.0,0.0,0.0,5.0901,5.0901,5.0901,5.0901,5.0901,5.0901,5.0901,5.0901,5.0901,5.0901,5.0901,5.0901,5.0901,5.0901,5.0901,5.0901,5.1488,5.2586,5.3832,5.5154,5.6519,5.7838,5.8505,5.8709,5.8709,5.8709,5.8709,5.8709,5.8709,5.8709,5.8709,5.8709,5.8709,5.8709,5.8764,5.8969,5.9783,6.0622,6.1479,6.2296,6.3036,6.359,6.359,6.359,6.359,6.359,6.359,6.359,6.359,6.359,6.359,6.359,6.359,6.359,6.359,6.4333,6.5188,6.5971,6.6844,6.7676,6.8382,6.8493,6.8493,6.8493,6.8493,6.8493,6.8493,6.8493,6.8493,6.8493,6.8493,6.8493,6.8493,6.8493,6.8493,6.8493,6.8493,6.8493,6.8493,6.8493,6.8493,6.8493,6.8493,6.8493,6.8493,6.8493,6.8493,0.0,0.0,0.0,0.0,0.0,0.0,3.5962,3.7226,3.8592,0.0,0.0,0.0,0.0,0.0,0.0,0.0,0.0,0.0,0.0,0.0,0.0,0.0,0.0,0.0,0.0,5.0901,5.0901,5.0901,5.0901,5.0901,5.0901,5.0901,5.0901,5.0901,5.0901,5.0901,5.0901,5.0901,5.0901,5.0901,5.0901,5.1142,5.1639,5.3537,5.4786,5.5583,5.7555,5.8505,5.8709,5.8709,5.8709,5.8709,5.8709,5.8709,5.8709,5.8709,5.8709,5.8709,5.8709,5.9117,5.9802,6.0661,6.1497,6.2315,6.3129,6.3479,6.359,6.359,6.359,6.359,6.359,6.359,6.359,6.359,6.359,6.359,6.359,6.359,6.359,6.359,6.4819,6.5896,6.6066,6.7308,6.8326,6.8475,6.8493,6.8493,6.8493,6.8493,6.8493,6.8493,6.8493,6.8493,6.8493,6.8493,6.8493,6.8493,6.8493,6.8493,6.8493,6.8493,6.8493,6.8493,6.8493,6.8493,6.8493,6.8493,6.8493,6.8493,6.8493,6.8493,0.0,0.0,0.0,3.5843,0.0,0.0,0.0,3.6719,3.7765,0.0,0.0,0.0,0.0,0.0,0.0,0.0,0.0,0.0,0.0,0.0,0.0,0.0,0.0,0.0,0.0,5.0307,5.0465,5.0869,5.0901,5.0901,5.0901,5.0901,5.0901,5.0901,5.0901,5.0901,5.0901,5.0901,5.0901,5.0901,5.0901,5.1089,5.1475,5.3481,5.4731,5.5415,5.7498,5.8505,5.8709,5.8709,5.8709,5.8709,5.8709,5.8709,5.8709,5.8709,5.8709,5.8764,5.9154,5.956,6.0118,6.1383,6.2073,6.2553,6.337,6.359,6.359,6.359,6.359,6.359,6.359,6.359,6.359,6.359,6.359,6.359,6.359,6.359,6.372,6.411,6.5228,6.6104,6.6104,6.7438,6.8493,6.8493,6.8493,6.8493,6.8493,6.8493,6.8493,6.8493,6.8493,6.8493,6.8493,6.8493,6.8493,6.8493,6.8493,6.8493,6.8493,6.8493,6.8493,6.8493,6.8493,6.8493,6.8493,6.8493,6.8493,6.8493,6.8493,6.8493,0.0,0.0,0.0,0.0,0.0,3.696,0.0,0.0,0.0,0.0,0.0,0.0,0.0,0.0,0.0,0.0,0.0,0.0,0.0,0.0,0.0,0.0,0.0,0.0,0.0,4.9482,4.9739,5.0388,5.0581,5.0676,5.0676,5.0813,5.0901,5.0901,5.0901,5.0901,5.0901,5.0901,5.0901,5.0901,5.0928,5.1145,5.1562,5.3535,5.4789,5.5506,5.7536,5.8505,5.8709,5.8709,5.8709,5.8709,5.8709,5.8709,5.8709,5.8709,5.8709,5.882,5.9616,6.0009,6.0396,6.1903,6.25,6.2758,6.3408,6.359,6.359,6.359,6.359,6.359,6.359,6.359,6.359,6.359,6.359,6.359,6.359,6.359,6.3832,6.4646,6.5503,6.6156,6.6305,6.7549,6.8493,6.8493,6.8493,6.8493,6.8493,6.8493,6.8493,6.8493,6.8493,6.8493,6.8493,6.8493,6.8493,6.8493,6.8493,6.8493,6.8493,6.8493,6.8493,6.8493,6.8493,6.8493,6.8493,6.8493,6.8493,6.8493,6.8493,6.8493,0.0,0.0,0.0,0.0,3.7985,0.0,0.0,0.0,0.0,0.0,0.0,0.0,0.0,0.0,0.0,0.0,0.0,0.0,0.0,0.0,0.0,0.0,0.0,0.0,0.0,0.0,4.8663,4.8771,4.9437,4.9836,4.9836,5.0514,5.0901,5.0901,5.0901,5.0901,5.0901,5.0901,5.0901,5.0901,5.1019,5.1231,5.1568,5.3638,5.4876,5.5506,5.7536,5.8505,5.8709,5.8709,5.8709,5.8709,5.8709,5.8709,5.8709,5.8709,5.8709,5.882,5.9616,6.0417,6.12,6.211,6.2888,6.3479,6.3572,6.359,6.359,6.359,6.359,6.359,6.359,6.359,6.359,6.359,6.359,6.359,6.359,6.359,6.3832,6.4646,6.5503,6.6324,6.7048,6.7902,6.8493,6.8493,6.8493,6.8493,6.8493,6.8493,6.8493,6.8493,6.8493,6.8493,6.8493,6.8493,6.8493,6.8493,6.8493,6.8493,6.8493,6.8493,6.8493,6.8493,6.8493,6.8493,6.8493,6.8493,6.8493,6.8493,6.8493,6.8493,0.0,0.0,0.0,0.0,0.0,0.0,0.0,0.0,3.6897,0.0,0.0,0.0,0.0,0.0,0.0,0.0,0.0,0.0,0.0,0.0,0.0,0.0,0.0,0.0,0.0,0.0,0.0,0.0,0.0,4.8762,4.9657,5.0026,5.0412,5.0887,5.0901,5.0901,5.0901,5.0901,5.0941,5.1019,5.1158,5.1441,5.1927,5.3926,5.5126,5.5734,5.7641,5.8545,5.8709,5.8709,5.8709,5.8709,5.8709,5.8709,5.8709,5.8709,5.9006,5.9526,6.0362,6.1197,6.2033,6.2832,6.3312,6.359,6.359,6.359,6.359,6.359,6.359,6.359,6.359,6.359,6.359,6.359,6.359,6.359,6.359,6.359,6.3999,6.5302,6.5844,6.6494,6.7788,6.8289,6.8493,6.8493,6.8493,6.8493,6.8493,6.8493,6.8493,6.8493,6.8493,6.8493,6.8493,6.8493,6.8493,6.8493,6.8493,6.8493,6.8493,6.8493,6.8493,6.8493,6.8493,6.8493,6.8493,6.8493,6.8493,6.8493,6.8493,6.8493,4.3959,0.0,0.0,0.0,0.0,0.0,0.0,0.0,0.0,0.0,0.0,0.0,0.0,0.0,0.0,0.0,0.0,0.0,0.0,0.0,0.0,0.0,0.0,0.0,0.0,0.0,0.0,4.6441,4.6835,4.7555,4.8685,4.9359,4.9977,5.055,5.0799,5.0901,5.0901,5.0901,5.0965,5.1099,5.129,5.1647,5.2195,5.4203,5.5363,5.5937,5.7722,5.8585,5.8709,5.8709,5.8709,5.8709,5.8709,5.8709,5.8727,5.895,5.9396,6.0062,6.1144,6.2052,6.2832,6.3405,6.359,6.359,6.359,6.359,6.359,6.359,6.359,6.359,6.359,6.359,6.359,6.359,6.359,6.359,6.359,6.359,6.4095,6.5766,6.6104,6.6602,6.8215,6.8493,6.8493,6.8493,6.8493,6.8493,6.8493,6.8493,6.8493,6.8493,6.8493,6.8493,6.8493,6.8493,6.8493,6.8493,6.8493,6.8493,6.8493,6.8493,6.8493,6.8493,6.8493,6.8493,6.8493,6.8493,6.8493,6.8493,6.8493,6.8493,0.0,0.0,0.0,4.1777,0.0,0.0,0.0,0.0,3.7863,0.0,0.0,0.0,0.0,0.0,0.0,3.7945,0.0,0.0,0.0,0.0,0.0,0.0,0.0,0.0,0.0,0.0,0.0,4.4015,4.5398,4.6264,4.6302,4.8468,4.971,4.9749,5.0497,5.0901,5.0901,5.0901,5.0965,5.1099,5.1421,5.1796,5.2277,5.4414,5.5576,5.599,5.7738,5.8585,5.8709,5.8709,5.8709,5.8709,5.8709,5.8709,5.8783,5.956,5.9876,6.0136,6.1794,6.2888,6.3572,6.359,6.359,6.359,6.359,6.359,6.359,6.359,6.359,6.359,6.359,6.359,6.359,6.359,6.359,6.359,6.359,6.359,6.4095,6.5766,6.6104,6.6602,6.8215,6.8493,6.8493,6.8493,6.8493,6.8493,6.8493,6.8493,6.8493,6.8493,6.8493,6.8493,6.8493,6.8493,6.8493,6.8493,6.8493,6.8493,6.8493,6.8493,6.8493,6.8493,6.8493,6.8493,6.8493,6.8493,6.8493,6.8493,6.8493,6.8493,0.0,0.0,4.4003,4.2722,0.0,0.0,0.0,0.0,0.0,0.0,0.0,0.0,0.0,0.0,3.9605,3.8735,3.8455,0.0,0.0,0.0,0.0,0.0,0.0,0.0,0.0,0.0,0.0,4.2301,4.3778,4.5121,0.0,4.7925,4.9153,4.9678,5.0483,5.0901,5.0901,5.0901,5.1065,5.1375,5.1618,5.2309,5.3431,5.4961,5.6097,5.6887,5.8111,5.8656,5.8709,5.8709,5.8709,5.8709,5.8709,5.9024,5.9523,5.9802,6.0269,6.0993,6.2628,6.337,6.359,6.359,6.359,6.359,6.359,6.359,6.359,6.359,6.359,6.359,6.359,6.359,6.359,6.359,6.359,6.359,6.359,6.4018,6.4723,6.5881,6.6531,6.7234,6.8308,6.8493,6.8493,6.8493,6.8493,6.8493,6.8493,6.8493,6.8493,6.8493,6.8493,6.8493,6.8493,6.8493,6.8493,6.8493,6.8493,6.8493,6.8493,6.8493,6.8493,6.8493,6.8493,6.8493,6.8493,6.8493,6.8493,6.8493,6.8493,6.8493,4.6627,4.6285,0.0,4.4331,4.3214,0.0,4.0821,0.0,0.0,0.0,0.0,0.0,0.0,0.0,0.0,3.9174,3.8577,3.752,0.0,3.4055,0.0,0.0,0.0,0.0,0.0,0.0,4.0766,4.1046,4.2583,4.4059,0.0,0.0,4.8465,4.9244,5.0055,5.0602,5.0901,5.0901,5.1094,5.1499,5.1755,5.2632,5.4117,5.5302,5.6393,5.7419,5.8311,5.8709,5.8709,5.8709,5.8709,5.8709,5.8709,5.9192,5.9932,6.0248,6.1086,6.2203,6.324,6.359,6.359,6.359,6.359,6.359,6.359,6.359,6.359,6.359,6.359,6.359,6.359,6.359,6.359,6.359,6.359,6.359,6.359,6.4222,6.5058,6.5933,6.6751,6.7565,6.8363,6.8493,6.8493,6.8493,6.8493,6.8493,6.8493,6.8493,6.8493,6.8493,6.8493,6.8493,6.8493,6.8493,6.8493,6.8493,6.8493,6.8493,6.8493,6.8493,6.8493,6.8493,6.8493,6.8493,6.8493,6.8493,6.8493,6.8493,6.8493,6.8493]},{"header":{"parameterUnit":"m.s-1","parameterCategory":1,"la1":30.6,"la2":29.2853,"lo1":-89.7004,"lo2":-87.6739,"dy":0.0162,"dx":0.0183,"nx":112,"ny":82,"refTime":"2024-04-01T00:00:00:Z","depth":0,"parameterNumber":3,"parameterNumberName":"V-component_of_WINDS"},"data":[0.0,0.0,0.0,0.0,0.0,0.0,0.0,0.0,0.0,0.0,0.0,0.0,0.0,0.0,0.0,0.0,0.0,0.0,0.0,0.0,0.0,0.0,0.0,0.0,0.0,0.0,0.0,0.0,0.0,0.0,0.0,0.0,0.0,0.0,0.0,0.0,0.0,0.0,0.0,0.0,0.0,0.0,0.0,0.0,0.0,0.0,0.0,0.0,0.0,0.0,0.0,0.0,0.0,0.0,0.0,0.0,0.0,0.0,0.0,0.0,0.0,0.0,0.0,0.0,0.0,0.0,0.0,0.0,0.0,0.0,0.0,0.0,0.0,0.0,0.0,0.0,0.0,0.0,0.0,0.0,0.0,0.0,0.0,0.0,0.0,0.0,0.0,0.0,0.0,0.0,0.0,0.4513,0.4815,0.5003,0.5003,0.4815,0.4699,0.4699,0.0,0.0,0.0,0.0,0.0,0.0,0.0,0.0,0.0,0.0,0.0,0.0,0.0,0.0,0.0,0.0,0.0,0.0,0.0,0.0,0.0,0.0,0.0,0.0,0.0,0.0,0.0,0.0,0.0,0.0,0.0,0.0,0.0,0.0,0.0,0.0,0.0,0.0,0.0,0.0,0.0,0.0,0.0,0.0,0.0,0.0,0.0,0.0,0.0,0.0,0.0,0.0,0.0,0.0,0.0,0.0,0.0,0.0,0.0,0.0,0.0,0.0,0.0,0.0,0.0,0.0,0.0,0.0,0.0,0.0,0.0,0.0,0.0,0.0,0.0,0.0,0.0,0.0,0.0,0.0,0.0,0.0,0.0,0.0,0.0,0.0,0.0,0.0,0.0,0.0,0.0,0.0,0.0,0.0,0.0,0.0,0.0,0.0,0.0,0.0,0.0,0.0,0.0,0.0,0.4266,0.4709,0.4904,0.5003,0.5003,0.4815,0.4699,0.4699,0.0,0.0,0.0,0.0,0.0,0.0,0.0,0.0,0.0,0.0,0.0,0.0,0.0,0.0,0.0,0.0,0.0,0.0,0.0,0.0,0.0,0.0,0.0,0.0,0.0,0.0,0.0,0.0,0.0,0.0,0.0,0.0,0.0,0.0,0.0,0.0,0.0,0.0,0.0,0.0,0.0,0.0,0.0,0.0,0.0,0.0,0.0,0.0,0.0,0.0,0.0,0.0,0.0,0.0,0.0,0.0,0.0,0.0,0.0,0.0,0.0,0.0,0.0,0.0,0.0,0.0,0.0,0.0,0.0,0.0,0.0,0.0,0.0,0.0,0.0,0.0,0.0,0.0,0.0,0.0,0.0,0.0,0.0,0.0,0.0,0.0,0.0,0.0,0.0,0.0,0.0,0.0,0.0,0.0,0.0,0.0,0.0,0.0,0.0,0.0,0.0,0.0,0.0,0.4299,0.4547,0.4872,0.4963,0.5003,0.5003,0.4815,0.4669,0.4594,0.4156,0.0,0.0,0.0,0.0,0.0,0.0,0.0,0.0,0.0,0.0,0.0,0.0,0.0,0.0,0.0,0.0,0.0,0.0,0.0,0.0,0.0,0.0,0.0,0.0,0.0,0.0,0.0,0.0,0.0,0.0,0.0,0.0,0.0,0.0,0.0,0.0,0.0,0.0,0.0,0.0,0.0,0.0,0.0,0.0,0.0,0.0,0.0,0.0,0.0,0.0,0.0,0.0,0.0,0.0,0.0,0.0,0.0,0.0,0.0,0.0,0.0,0.0,0.0,0.0,0.0,0.0,0.0,0.0,0.0,0.0,0.0,0.0,0.0,0.0,0.0,0.0,0.0,0.0,0.0,0.0,0.0,0.0,0.0,0.0,0.0,0.0,0.0,0.0,0.0,0.0,0.0,0.0,0.0,0.0,0.0,0.0,0.0,0.0,0.0,0.0,0.0,0.0,0.4554,0.4778,0.4981,0.5003,0.5003,0.5003,0.4815,0.4658,0.4555,0.414,0.0,0.0,0.0,0.0,0.0,0.0,0.0,0.0,0.0,0.0,0.0,0.0,0.0,0.0,0.0,0.0,0.0,0.0,0.0,0.0,0.0,0.0,0.0,0.0,0.0,0.0,0.0,0.0,0.0,0.0,0.0,0.0,0.0,0.0,0.0,0.0,0.0,0.0,0.0,0.0,0.0,0.0,0.0,0.0,0.0,0.0,0.0,0.0,0.0,0.0,0.0,0.0,0.0,0.0,0.0,0.0,0.0,0.0,0.0,0.0,0.0,0.0,0.0,0.0,0.0,0.0,0.0,0.0,0.0,0.0,0.0,0.0,0.0,0.0,0.0,0.0,0.0,0.0,0.0,0.0,0.0,0.0,0.0,0.0,0.0,0.0,0.0,0.0,0.0,0.0,0.0,0.0,0.0,0.0,0.0,0.0,0.0,0.0,0.0,0.0,0.0,0.0,0.4612,0.4778,0.4981,0.5003,0.5003,0.5003,0.4815,0.4698,0.4685,0.4193,0.0,0.0,0.0,0.0,0.0,0.0,0.0,0.0,0.0,0.0,0.0,0.0,0.0,0.0,0.0,0.0,0.0,0.0,0.0,0.0,0.0,0.0,0.0,0.0,0.0,0.0,0.0,0.0,0.0,0.0,0.0,0.0,0.0,0.0,0.0,0.0,0.0,0.0,0.0,0.0,0.0,0.0,0.0,0.0,0.0,0.0,0.0,0.0,0.0,0.0,0.0,0.0,0.0,0.0,0.0,0.0,0.0,0.0,0.0,0.0,0.0,0.0,0.0,0.0,0.0,0.0,0.0,0.0,0.0,0.0,0.0,0.0,0.0,0.0,0.0,0.0,0.0,0.0,0.0,0.0,0.0,0.0,0.0,0.0,0.0,0.0,0.0,0.0,0.0,0.0,0.0,0.0,0.0,0.0,0.0,0.0,0.0,0.0,0.0,0.0,0.0,0.0,0.4913,0.5135,0.0,0.5198,0.5124,0.5124,0.4861,0.4628,0.4459,0.0,0.0,0.0,0.0,0.0,0.0,0.0,0.0,0.0,0.0,0.0,0.0,0.0,0.0,0.0,0.0,0.0,0.0,0.0,0.0,0.0,0.0,0.0,0.0,0.0,0.0,0.0,0.0,0.0,0.0,0.0,0.0,0.0,0.0,0.0,0.0,0.0,0.0,0.0,0.0,0.0,0.0,0.0,0.0,0.0,0.0,0.0,0.0,0.0,0.0,0.0,0.0,0.0,0.0,0.0,0.0,0.0,0.0,0.0,0.0,0.0,0.0,0.0,0.0,0.0,0.0,0.0,0.0,0.0,0.0,0.0,0.0,0.0,0.0,0.0,0.0,0.0,0.0,0.0,0.0,0.0,0.0,0.0,0.0,0.0,0.0,0.0,0.0,0.0,0.0,0.0,0.0,0.0,0.0,0.0,0.0,0.0,0.0,0.0,0.0,0.0,0.0,0.4975,0.5187,0.5367,0.0,0.5384,0.5242,0.5204,0.4973,0.4731,0.4503,0.0,0.0,0.0,0.0,0.0,0.0,0.0,0.0,0.0,0.0,0.0,0.0,0.0,0.0,0.0,0.0,0.0,0.0,0.0,0.0,0.0,0.0,0.0,0.0,0.0,0.0,0.0,0.0,0.0,0.0,0.0,0.0,0.0,0.0,0.0,0.0,0.0,0.0,0.0,0.0,0.0,0.0,0.0,0.0,0.0,0.0,0.0,0.0,0.0,0.0,0.0,0.0,0.0,0.0,0.0,0.0,0.0,0.0,0.0,0.0,0.0,0.0,0.0,0.0,0.0,0.0,0.0,0.0,0.0,0.0,0.0,0.0,0.0,0.0,0.0,0.0,0.0,0.0,0.0,0.0,0.0,0.0,0.0,0.0,0.0,0.0,0.0,0.0,0.0,0.0,0.0,0.0,0.0,0.0,0.0,0.0,0.0,0.0,0.0,0.0,0.0,0.0,0.5425,0.5389,0.541,0.5679,0.5525,0.5348,0.5215,0.514,0.504,0.0,0.0,0.0,0.0,0.0,0.0,0.0,0.0,0.0,0.0,0.0,0.0,0.0,0.0,0.0,0.0,0.0,0.0,0.0,0.0,0.0,0.0,0.0,0.0,0.0,0.0,0.0,0.0,0.0,0.0,0.0,0.0,0.0,0.0,0.0,0.0,0.0,0.0,0.0,0.0,0.0,0.0,0.0,0.0,0.0,0.0,0.0,0.0,0.0,0.0,0.0,0.0,0.0,0.0,0.0,0.0,0.0,0.0,0.0,0.0,0.0,0.0,0.0,0.0,0.0,0.0,0.0,0.0,0.0,0.0,0.0,0.0,0.0,0.0,0.0,0.0,0.0,0.0,0.0,0.0,0.0,0.0,0.0,0.0,0.0,0.0,0.0,0.0,0.0,0.0,0.0,0.0,0.0,0.0,0.0,0.0,0.0,0.0,0.0,0.0,0.0,0.0,0.0,0.5644,0.5763,0.5859,0.6035,0.5702,0.5437,0.5346,0.5195,0.5003,0.4773,0.0,0.0,0.0,0.0,0.0,0.0,0.0,0.0,0.0,0.0,0.0,0.0,0.0,0.0,0.0,0.0,0.0,0.0,0.0,0.0,0.0,0.0,0.0,0.0,0.0,0.0,0.0,0.0,0.0,0.0,0.0,0.0,0.0,0.0,0.0,0.0,0.0,0.0,0.0,0.0,0.0,0.0,0.0,0.0,0.0,0.0,0.0,0.0,0.0,0.0,0.0,0.0,0.0,0.0,0.0,0.0,0.0,0.0,0.0,0.0,0.0,0.0,0.0,0.0,0.0,0.0,0.0,0.0,0.0,0.0,0.0,0.0,0.0,0.0,0.0,0.0,0.0,0.0,0.0,0.0,0.0,0.0,0.0,0.0,0.0,0.0,0.0,0.0,0.0,0.0,0.0,0.0,0.0,0.0,0.0,0.0,0.0,0.0,0.0,0.0,0.0,0.0,0.5932,0.6071,0.6205,0.6419,0.6092,0.5829,0.5765,0.5598,0.5383,0.5114,0.0,0.0,0.0,0.0,0.0,0.0,0.0,0.0,0.0,0.0,0.0,0.0,0.0,0.0,0.0,0.0,0.0,0.0,0.0,0.0,0.0,0.0,0.0,0.0,0.0,0.0,0.0,0.0,0.0,0.0,0.0,0.0,0.0,0.0,0.0,0.0,0.0,0.0,0.0,0.0,0.0,0.0,0.0,0.0,0.0,0.0,0.0,0.0,0.0,0.0,0.0,0.0,0.0,0.0,0.0,0.0,0.0,0.0,0.0,0.0,0.0,0.0,0.0,0.0,0.0,0.0,0.0,0.0,0.0,0.0,0.0,0.0,0.0,0.0,0.0,0.0,0.0,0.0,0.0,0.0,0.0,0.0,0.0,0.0,0.0,0.0,0.0,0.0,0.0,0.0,0.0,0.0,0.0,0.0,0.0,0.0,0.0,0.0,0.0,0.0,0.0,0.0,0.6221,0.63,0.643,0.6763,0.6562,0.6371,0.6305,0.6177,0.5985,0.5718,0.0,0.0,0.0,0.0,0.0,0.0,0.0,0.0,0.0,0.0,0.0,0.0,0.0,0.0,0.0,0.0,0.0,0.0,0.0,0.0,0.0,0.0,0.0,0.0,0.0,0.0,0.0,0.0,0.0,0.0,0.0,0.0,0.0,0.0,0.0,0.0,0.0,0.0,0.0,0.0,0.0,0.0,0.0,0.0,0.0,0.0,0.0,0.0,0.0,0.0,0.0,0.0,0.0,0.0,0.0,0.0,0.0,0.0,0.0,0.0,0.8861,0.0,0.0,0.0,0.0,0.0,0.0,0.0,0.0,0.0,0.0,0.0,0.0,0.0,0.0,0.0,0.0,0.0,0.0,0.0,0.0,0.0,0.0,0.0,0.0,0.0,0.0,0.0,0.0,0.0,0.0,0.0,0.0,0.0,0.0,0.0,0.0,0.0,0.0,0.0,0.0,0.0,0.6221,0.63,0.643,0.6763,0.6562,0.6371,0.6305,0.6177,0.5985,0.5718,0.0,0.0,0.0,0.0,0.0,0.0,0.0,0.0,0.0,0.0,0.0,0.0,0.0,0.0,0.0,0.0,0.0,0.0,0.0,0.0,0.0,0.0,0.0,0.0,0.0,0.0,0.0,0.0,0.0,0.0,0.0,0.0,0.0,0.0,0.0,0.0,0.0,0.0,0.0,0.0,0.0,0.0,0.0,0.0,0.0,0.0,0.0,0.0,0.0,0.0,0.0,0.0,0.0,0.0,0.0,0.0,0.0,0.0,0.0,0.0,0.0,0.935,0.0,0.0,0.0,0.0,0.0,0.0,0.0,0.0,0.0,0.0,0.0,0.0,0.0,0.0,0.0,0.0,0.0,0.0,0.0,0.0,0.0,0.0,0.0,0.0,0.0,0.0,0.0,0.0,0.0,0.0,0.0,0.0,0.0,0.0,0.0,0.0,0.0,0.0,0.0,0.0,0.6338,0.645,0.6611,0.6914,0.6819,0.6724,0.6686,0.656,0.637,0.6103,0.5833,0.0,0.0,0.0,0.0,0.0,0.0,0.0,0.0,0.0,0.0,0.0,0.0,0.0,0.0,0.0,0.0,0.0,0.0,0.0,0.0,0.0,0.0,0.0,0.0,0.0,0.0,0.0,0.0,0.0,0.0,0.0,0.0,0.0,0.0,0.0,0.0,0.0,0.0,0.0,0.0,0.0,0.0,0.0,0.0,0.0,0.0,0.0,0.0,0.0,0.0,0.0,0.0,0.0,1.1379,1.149,1.1714,1.1714,1.1858,1.204,1.0891,1.043,1.0469,0.0,0.0,0.0,0.0,0.0,0.0,0.0,0.0,0.0,0.0,0.0,0.0,0.0,0.0,0.0,0.0,0.0,0.0,0.0,0.0,0.0,0.0,0.0,0.0,0.0,1.1131,1.0892,0.0,0.0,0.0,0.0,0.0,0.0,0.0,0.0,0.0,0.0,0.0,0.0,0.6572,0.672,0.6881,0.7079,0.7101,0.7101,0.7101,0.6978,0.6794,0.6549,0.6234,0.5805,0.0,0.0,0.0,0.0,0.0,0.0,0.0,0.0,0.0,0.0,0.0,0.0,0.0,0.0,0.0,0.0,0.0,0.0,0.0,0.0,0.0,0.0,0.0,0.0,0.0,0.0,0.0,0.0,0.0,0.0,0.0,0.0,0.9722,0.9524,0.0,0.0,0.0,0.0,0.0,0.0,0.0,0.0,0.0,0.0,0.0,0.0,0.0,0.0,1.1737,1.1972,1.2219,1.2488,1.2488,1.2512,1.2537,1.2537,1.2694,1.2918,1.2513,0.0,1.13,1.0758,0.0,0.0,0.0,0.0,0.0,0.0,0.0,0.0,0.0,0.0,0.0,0.0,0.0,0.0,0.0,0.0,0.0,0.0,0.0,0.0,0.0,0.0,1.1718,1.1835,1.203,1.2101,0.0,1.064,0.9739,0.9682,0.0,0.0,0.0,0.0,0.0,0.0,0.0,0.0,0.6998,0.7139,0.7191,0.7106,0.7101,0.7101,0.7101,0.6978,0.6833,0.6681,0.6413,0.6093,0.5724,0.5451,0.0,0.0,0.0,0.0,0.0,0.0,0.0,0.0,0.0,0.0,0.0,0.0,0.0,0.0,0.0,0.0,0.0,0.0,0.0,0.0,0.0,0.0,0.0,0.0,0.0,0.0,0.0,0.0,0.0,1.0058,1.0038,0.9958,1.0047,1.0081,0.0,0.0,0.0,0.0,0.0,0.0,0.0,0.0,0.0,1.1593,1.2118,1.2533,1.2797,1.3073,1.3327,1.3598,1.3598,1.3682,1.3822,1.3822,1.3972,1.4214,1.3942,1.3538,1.2989,1.1841,1.1371,1.1317,0.0,0.0,0.0,0.0,1.074,1.1142,1.0721,1.093,0.0,0.0,0.0,0.0,0.0,0.0,0.0,0.0,0.0,0.0,0.0,0.0,0.0,1.2803,1.2925,1.2989,1.287,1.2243,1.1499,0.0,0.9917,0.919,0.8939,0.0,0.0,0.0,0.0,0.0,0.7722,0.754,0.7404,0.7385,0.7317,0.7272,0.7272,0.711,0.6954,0.6822,0.6703,0.6466,0.6093,0.5863,0.5533,0.0,0.0,0.0,0.0,0.0,0.0,0.0,0.0,0.0,0.0,0.0,0.0,0.0,0.0,0.0,0.0,0.0,0.0,0.0,0.0,0.0,0.0,0.0,0.0,0.0,0.0,0.0,0.0,1.0708,1.0673,1.0609,1.0669,1.0659,0.0,0.0,0.0,0.0,0.0,0.0,1.1878,1.216,1.243,1.27,1.3231,1.3611,1.381,1.4069,1.431,1.4497,1.4497,1.4606,1.4798,1.4798,1.4907,1.5094,1.4889,1.469,1.4389,1.2917,1.2268,1.2159,1.1688,1.1506,1.1506,1.1506,1.1808,1.2153,1.1754,1.1923,1.2231,1.1761,0.0,1.147,1.1272,0.0,0.0,0.0,0.0,1.225,1.2448,1.29,1.3358,1.3551,1.3647,1.3695,1.3617,1.3454,1.2999,0.0,1.108,1.0427,1.0181,0.0,0.0,0.0,0.0,0.8787,0.8582,0.8178,0.7855,0.7714,0.7611,0.7511,0.7411,0.7259,0.7108,0.6961,0.6922,0.6764,0.6464,0.621,0.5934,0.5637,0.0,0.0,0.0,0.0,0.0,0.0,0.0,0.0,0.0,0.0,0.0,0.0,0.0,0.0,0.0,0.0,0.0,0.0,0.0,0.0,0.0,0.0,0.0,0.0,0.0,0.0,0.0,0.0,0.0,1.1479,1.1658,0.0,0.0,0.0,0.0,1.1822,1.2085,1.2448,1.2991,1.3274,1.3544,1.3809,1.434,1.463,1.4636,1.4907,1.5046,1.5058,1.5058,1.507,1.5082,1.5082,1.5088,1.51,1.5088,1.507,1.4967,1.387,1.3273,1.3009,1.273,1.2615,1.2615,1.2615,1.2803,1.3039,1.3009,1.3177,1.337,1.3087,1.2833,1.2615,1.2598,1.2597,0.0,0.0,1.2809,1.3039,1.3057,1.346,1.3858,1.3876,1.4069,1.4189,1.393,1.387,1.3695,0.0,1.2262,1.1615,1.16,0.0,1.0553,1.0598,1.0321,0.9967,0.9582,0.9228,0.8755,0.8057,0.7977,0.7817,0.7435,0.7392,0.7297,0.7101,0.6971,0.6892,0.6868,0.6493,0.6274,0.6253,0.5794,0.0,0.0,0.0,0.0,0.0,0.0,0.0,0.0,0.0,0.0,0.0,0.0,0.0,0.0,0.0,0.0,0.0,0.0,0.0,0.0,0.0,0.0,0.0,0.0,0.0,0.0,0.0,0.0,1.3052,1.2976,0.0,0.0,1.299,1.3155,1.3424,1.353,1.3751,1.4105,1.422,1.4395,1.466,1.5028,1.5209,1.5209,1.5481,1.5608,1.5608,1.5608,1.5608,1.5608,1.5608,1.5608,1.5608,1.5608,1.5524,1.533,1.4944,1.4527,1.4099,1.3834,1.3731,1.3731,1.3731,1.39,1.4099,1.393,1.4051,1.4232,1.396,1.3809,1.3731,1.3731,1.3731,1.3731,1.3731,1.3918,1.4129,1.4129,1.4401,1.4672,1.4672,1.4751,1.4738,1.4473,1.4407,1.431,1.3936,1.3181,1.2597,1.2597,1.224,1.1919,1.1808,1.144,1.1037,1.0679,1.0112,0.9627,0.9318,0.89,0.8585,0.8442,0.7952,0.7626,0.7553,0.7223,0.6991,0.6906,0.6681,0.6536,0.6496,0.6117,0.592,0.0,0.0,0.0,0.0,0.0,0.0,0.0,0.0,0.0,0.0,0.0,0.0,0.0,0.0,0.0,0.0,0.0,0.0,0.0,0.0,0.0,0.0,0.0,0.0,0.0,0.0,1.4491,1.4538,1.4401,1.4318,1.4336,1.4417,1.4548,1.4728,1.4818,1.4935,1.51,1.5099,1.5189,1.536,1.5541,1.5626,1.5626,1.5808,1.5905,1.5905,1.5905,1.5905,1.5905,1.5905,1.5905,1.5905,1.5905,1.5801,1.5626,1.5626,1.5427,1.507,1.4714,1.457,1.457,1.457,1.4684,1.4811,1.463,1.469,1.4811,1.463,1.457,1.457,1.457,1.457,1.457,1.457,1.4696,1.4829,1.4829,1.4974,1.51,1.51,1.51,1.5052,1.4865,1.4829,1.4781,1.46,1.3918,1.337,1.337,1.3152,1.2919,1.2789,1.2434,1.207,1.1781,1.1161,1.0651,1.043,0.9923,0.9518,0.9288,0.8718,0.8276,0.8047,0.7682,0.737,0.7147,0.7073,0.7015,0.6972,0.6796,0.672,0.6736,0.0,0.0,0.0,0.0,0.0,0.0,0.0,0.0,0.0,0.0,0.0,0.0,0.0,0.0,0.0,0.0,0.0,0.0,0.0,0.0,0.0,0.0,0.0,1.5499,1.589,1.617,1.5907,1.5931,1.5788,1.5329,1.5515,1.5664,1.5658,1.5895,1.5986,1.5933,1.5919,1.5919,1.5917,1.5922,1.5922,1.5922,1.5922,1.5922,1.5922,1.5922,1.5922,1.5922,1.5922,1.5922,1.5922,1.5922,1.5922,1.5922,1.5917,1.591,1.5856,1.533,1.5118,1.5118,1.5118,1.5118,1.5118,1.5118,1.5118,1.5118,1.5118,1.5118,1.5118,1.5118,1.5118,1.5118,1.5118,1.5118,1.5118,1.5118,1.5118,1.5118,1.5118,1.5118,1.5118,1.5106,1.5106,1.5113,1.51,1.4473,1.393,1.393,1.3701,1.3519,1.3508,1.3286,0.0,1.2847,1.2358,1.184,1.131,1.101,1.0578,0.9923,0.9656,0.9244,0.8572,0.8335,0.803,0.7635,0.7685,0.7717,0.7724,0.7867,0.7905,0.7838,0.0,0.0,0.0,0.0,0.0,0.0,0.0,0.0,0.0,0.0,0.0,0.0,0.0,0.0,0.0,0.0,0.0,0.0,0.0,0.0,0.0,0.0,1.753,1.7287,1.7573,1.7754,1.763,1.7496,1.7368,1.7237,1.712,1.7052,1.7053,1.671,1.6503,1.6478,1.6302,1.6281,1.6471,1.6477,1.6477,1.6477,1.6477,1.6477,1.6477,1.6477,1.6477,1.6477,1.6477,1.6477,1.6477,1.6477,1.6477,1.6459,1.6273,1.6189,1.6159,1.5814,1.5681,1.5681,1.5681,1.5681,1.5681,1.5681,1.5681,1.5681,1.5681,1.5681,1.5681,1.5681,1.5681,1.5681,1.5681,1.5681,1.5681,1.5681,1.5681,1.5681,1.5681,1.5681,1.5632,1.5426,1.539,1.533,1.5137,1.4925,1.4714,1.4509,1.4262,1.401,1.382,1.373,0.0,1.3341,1.3008,1.2741,1.259,1.2212,1.1809,1.1429,1.0586,0.9838,0.9265,0.8763,0.8352,0.8049,0.8096,0.8155,0.8205,0.858,0.874,0.0,0.0,0.0,0.0,0.0,0.0,0.0,0.0,0.0,0.0,0.0,0.0,0.0,0.0,0.0,0.0,0.0,0.0,0.0,0.0,0.0,0.0,1.7994,1.8843,1.9212,1.929,1.924,1.9041,1.8927,1.8794,1.8571,1.8398,1.8275,1.8151,1.7815,1.7461,1.71,1.6928,1.6801,1.6701,1.67,1.67,1.67,1.67,1.67,1.67,1.67,1.67,1.67,1.67,1.67,0.0,1.67,1.67,1.6688,1.6532,1.6467,0.0,0.0,0.0,0.0,0.0,1.5905,1.5905,1.5905,1.5905,1.5905,1.5905,1.5905,1.5905,1.5905,1.5905,1.5905,1.5905,1.5905,1.5905,1.5905,1.5905,1.5905,1.5905,1.5905,1.5862,1.5699,1.5669,1.562,1.5475,1.5342,0.0,1.5058,1.4811,1.4581,1.4433,1.4313,1.4181,1.4023,1.3675,1.3437,1.3437,1.3092,1.2716,1.237,1.163,0.0,0.0,0.0,0.9362,0.9091,0.9066,0.0,0.0,0.0,0.9791,0.9842,0.0,0.0,0.0,0.9444,0.9689,0.0,0.0,0.0,0.0,0.0,0.0,0.0,0.0,0.0,0.0,0.0,0.0,0.0,0.0,0.0,0.0,1.915,2.0195,2.1058,2.1016,2.0716,2.0273,2.0271,2.0113,1.9608,1.9503,1.9329,1.9023,1.8906,1.8511,1.773,0.0,0.0,0.0,0.0,1.6833,1.6791,1.6791,1.6791,1.6791,1.6791,1.6791,1.6791,1.6791,1.6791,1.6791,1.6791,1.6791,1.6792,1.6762,1.6724,1.6652,1.6183,1.5989,1.5989,1.5989,1.5989,1.5989,1.5989,0.0,0.0,1.5952,1.5947,1.5941,1.5911,1.5905,1.5905,1.5905,1.5905,1.5905,1.5905,1.5905,1.5905,1.5905,1.5905,1.5905,1.5905,1.5905,1.5905,1.5905,1.5705,1.5554,1.5554,1.53,1.51,1.51,1.4895,1.475,1.475,1.4332,1.4037,1.4037,0.0,0.0,1.2972,1.266,1.2088,1.1144,1.0857,1.065,1.0472,1.0336,1.0551,1.111,1.098,1.0987,1.117,1.1186,1.1433,1.1853,1.0925,1.089,0.0,0.0,0.0,0.0,0.0,0.0,0.0,0.0,0.0,0.0,0.0,0.0,0.0,0.0,0.0,1.9252,2.0332,2.1361,2.2179,2.2479,2.2355,2.1621,2.1543,2.1452,2.1179,2.071,2.021,1.9669,1.8968,1.848,1.8261,1.8046,0.0,1.7754,1.7746,1.7616,1.7348,1.7348,1.7348,1.7348,0.0,0.0,1.7348,1.7348,1.7348,1.7348,1.7348,1.7348,1.733,1.7112,1.69,1.6688,1.6592,1.655,1.655,1.655,1.655,1.655,1.655,1.655,1.6514,1.6291,1.6219,1.6183,1.5971,1.5905,0.0,1.5905,1.5905,1.5905,1.5905,1.5905,1.5905,1.5905,1.5905,1.5905,1.5905,1.5905,1.5905,1.5905,1.5862,1.582,1.582,1.5421,1.51,1.51,1.5058,1.5022,1.5022,1.4929,1.4868,1.4868,1.4824,1.4491,1.3748,1.3286,1.2617,1.1627,1.1172,1.1092,1.142,1.14,1.1549,1.1878,1.2062,1.217,1.2209,1.2371,1.2608,1.2893,1.2057,1.2071,0.0,0.0,0.0,0.0,0.0,0.0,0.0,0.0,0.0,0.0,0.0,1.7812,0.0,0.0,1.9935,2.0457,2.1368,2.22,2.2768,2.3171,2.3193,2.2659,2.26,2.2457,2.2094,2.1783,2.1289,2.0559,1.9935,1.9376,1.8882,1.86,1.831,1.801,1.8002,1.7842,1.7499,1.7499,1.7499,1.7499,1.7499,1.7499,1.7499,1.7499,1.7499,1.7499,1.7499,1.7499,1.7487,1.7354,1.7222,1.71,1.71,1.6937,1.67,1.67,1.67,1.67,1.67,1.67,1.6676,1.6544,1.6496,1.6454,1.6183,1.6097,1.6097,1.6104,1.6098,1.6098,1.6098,1.6098,1.6075,1.5928,1.5905,1.5905,1.5905,1.5905,1.5905,1.5905,1.5905,1.5905,1.5905,1.5681,1.5499,1.5499,1.539,1.53,1.53,1.5185,1.51,1.51,1.51,1.4882,1.4349,1.387,1.3395,1.288,1.251,1.2474,1.2841,1.2853,1.2957,1.3201,1.3233,1.3251,1.3251,1.3355,1.3535,1.3785,1.349,1.3485,0.0,0.0,0.0,0.0,0.0,0.0,0.0,0.0,1.735,1.735,1.8513,1.9531,1.9531,2.04,2.1234,2.1582,2.2234,2.2834,2.3265,2.3588,2.3749,2.3605,2.3519,2.3285,2.2815,2.2724,2.2301,2.1353,2.0981,2.0421,1.9541,1.9287,1.8895,1.8273,1.82,1.7989,1.7602,1.7529,1.7499,1.7499,1.7499,1.7499,1.7499,1.7499,1.7499,1.7499,1.7499,1.7499,1.7499,1.7499,1.7499,1.7499,1.7499,1.724,1.6864,1.6864,1.6864,1.6864,1.6864,1.6864,1.6852,1.6791,1.6786,1.6731,1.646,1.6381,1.638,1.6382,1.6383,1.6383,1.6383,1.6383,1.6322,1.611,1.6062,1.6062,1.6062,1.6007,1.5977,1.5977,1.5941,1.5905,1.5905,1.5905,1.5905,1.5905,1.5717,1.5578,1.5578,1.539,1.5264,1.5264,1.5264,1.5131,1.4797,1.4341,1.4065,1.4065,1.3859,1.386,1.4121,1.4139,1.4242,1.4449,1.4297,1.4206,1.4206,1.4209,1.432,1.4538,1.4761,1.4713,1.6637,1.6686,1.658,1.6282,1.6733,1.7242,0.0,0.0,1.8938,1.8938,1.9886,2.0709,2.0709,2.1348,2.2014,2.2399,2.2787,2.3284,2.3981,2.4124,2.4265,2.4588,2.4323,2.4011,2.3773,2.3535,2.2876,2.1646,2.1303,2.0859,2.022,2.0162,1.9844,1.9177,1.8917,1.8523,1.7944,1.7652,1.7499,1.7499,1.7499,1.7499,1.7499,1.7499,1.7499,1.7499,1.7499,1.7499,1.7499,1.7499,1.7499,1.7499,1.7499,1.7463,1.7409,1.7409,1.7409,1.7409,1.7409,1.7409,1.7373,1.713,1.7057,1.701,1.6743,1.6665,1.6665,1.6665,1.6659,1.6659,1.6659,1.6659,1.6653,1.6616,1.661,1.661,1.661,1.6417,1.6262,1.6262,1.6062,1.5905,1.5905,1.5905,1.5905,1.5905,1.5868,1.5862,1.5862,1.5826,1.5808,1.5808,1.5808,1.5605,1.5105,1.457,1.4273,1.4273,1.4239,1.4342,1.4613,1.4619,1.4739,1.501,1.4991,1.4978,1.4978,1.4977,1.4995,1.5026,1.5291,1.5274,1.6864,1.7068,0.0,0.0,1.7775,1.8485,1.8485,1.9368,2.0194,2.0194,2.0909,2.1545,2.1545,2.2141,2.2698,0.0,2.3367,2.3844,2.416,2.44,2.4605,2.4783,2.4655,2.4455,2.4204,2.4089,2.3578,2.2498,2.1995,2.1382,2.0579,2.0198,1.9715,1.9084,1.8772,1.849,1.8239,1.79,1.7906,1.8258,1.8258,1.8258,1.8252,1.8085,1.7828,1.7499,1.7499,1.7499,1.7499,1.7499,1.7499,1.7499,1.7499,1.7499,1.7499,1.7499,1.7499,1.7499,1.7499,1.7499,1.7475,1.7373,1.7329,1.7275,1.7008,1.693,1.693,1.693,1.693,1.693,1.693,1.693,1.6887,1.6736,1.67,1.67,1.67,1.661,1.6532,1.6532,1.6441,1.6369,1.6369,1.6237,1.6128,1.6128,1.6001,1.5905,1.5905,1.5905,1.5905,1.5905,1.5905,1.581,1.5583,1.5357,1.5227,1.5227,1.5227,1.5285,1.539,1.5403,1.5448,1.5559,1.5572,1.5572,1.5572,1.5572,1.5572,1.5572,1.5681,1.5668,1.7331,0.0,0.0,1.8064,1.8809,1.9534,1.9637,2.0463,2.1194,2.1194,2.1714,2.2174,2.2174,2.2681,0.0,2.3254,2.3791,2.4239,2.4349,2.4621,2.48,2.48,2.48,2.4717,2.4529,2.4439,2.4013,2.307,2.2597,2.1944,2.1017,2.0558,2.0081,1.9554,1.9123,1.8861,1.879,1.8355,1.8369,1.8795,1.8795,1.8795,1.8788,1.8515,1.8159,1.7741,1.7668,1.7639,1.7631,1.7543,1.7499,1.7499,1.7499,1.7499,1.7499,1.7499,1.7499,1.7499,1.7499,1.7499,1.7499,1.7499,1.7499,1.7463,1.727,1.7216,1.7216,1.7216,1.7216,1.7216,1.7216,1.7216,1.716,1.6967,1.6925,1.6925,1.6925,1.6857,1.6809,1.6809,1.6748,1.67,1.67,1.6538,1.6412,1.6412,1.6249,1.6074,1.5923,1.5905,1.5905,1.5905,1.5905,1.5905,1.5905,1.5905,1.5905,1.5905,1.5905,1.5905,1.5905,1.5905,1.5905,1.5905,1.5905,1.5905,1.5905,1.5905,1.5905,1.5905,1.5905,1.594,0.0,0.0,1.8744,1.9449,1.995,2.0372,2.0763,2.1434,2.1967,2.1967,2.2294,2.2577,2.2577,2.2871,2.3228,2.3621,2.3967,2.434,2.4723,2.4792,2.48,2.48,2.48,2.48,0.0,2.455,2.4013,2.307,2.2979,2.2591,2.1718,2.1647,2.1479,2.1138,2.049,2.0018,1.976,1.9097,1.8781,1.8795,1.8795,1.8795,1.8788,1.8515,1.8391,1.8359,1.8099,1.7981,1.7965,1.7631,1.7499,1.7499,1.7499,1.7499,1.7499,1.7499,1.7499,1.7499,1.7499,1.7499,1.7499,1.7499,1.7499,1.7499,1.7487,1.7495,1.7495,1.7495,1.7495,1.7495,1.7495,1.7495,1.7495,1.7483,1.7483,1.7483,1.7483,1.727,1.7095,1.7095,1.6882,1.67,1.67,1.6687,1.6688,1.6688,1.6682,1.6489,1.5971,1.5905,1.5905,1.5905,1.5905,1.5905,1.5905,1.5905,1.5905,1.5905,1.5905,1.5905,1.5905,1.5905,1.5905,1.5905,1.5905,1.5905,1.5905,1.5905,1.5905,1.5905,1.5905,1.6043,0.0,0.0,1.9852,2.0369,2.0974,2.1462,2.1605,2.2029,2.2401,2.2401,2.2508,2.26,2.26,2.3089,2.3539,2.3681,2.4211,2.4646,2.4783,2.48,2.48,2.48,2.48,0.0,0.0,0.0,0.0,2.3971,2.3556,2.3131,2.2651,2.2039,2.1555,2.1213,2.0591,2.0091,1.9741,1.9293,1.9264,1.9671,1.9891,1.9781,1.9396,1.9301,1.904,1.8653,1.8379,1.8269,1.8228,1.7712,1.7499,1.7499,1.7499,1.7499,1.7499,1.7499,1.7499,1.7499,1.7499,1.7499,1.7499,1.7499,1.7499,1.7499,1.7499,1.7499,1.7499,1.7499,1.7499,1.7499,1.7499,1.7499,1.7499,1.7499,1.7499,1.7499,1.7499,1.7427,1.7367,1.7367,1.7287,1.7234,1.7234,1.7082,1.6912,1.6724,1.655,1.637,1.6189,1.6013,1.5905,1.5905,1.5905,1.5905,1.5905,1.5905,1.5905,1.5905,1.5905,1.5905,1.5905,1.5905,1.5905,1.5905,1.5905,1.5905,1.5905,1.5905,1.5995,1.6169,1.6171,1.6315,1.9449,2.0038,2.0637,2.116,2.1651,2.2036,2.2177,2.2404,2.26,2.26,2.2491,2.2427,2.2568,2.2989,2.339,2.3657,2.4205,2.4638,2.4783,2.48,2.48,2.48,2.48,0.0,0.0,0.0,0.0,2.4418,2.4149,2.3833,2.3442,2.2871,2.246,2.224,2.1507,2.0942,2.0555,2.0109,2.001,2.0281,2.0385,2.0218,1.9844,1.974,1.9485,1.9108,1.884,1.8715,1.8674,1.794,1.7638,1.7626,1.7543,1.7499,1.7499,1.7499,1.7499,1.7499,1.7499,1.7499,1.7499,1.7499,1.7499,1.7499,1.7499,1.7499,1.7499,1.7499,1.7499,1.7499,1.7499,1.7499,1.7499,1.7499,1.7499,1.7499,1.7499,1.7499,1.7499,1.7499,1.7499,1.7499,1.7499,1.7354,1.7178,1.7008,1.6762,1.6551,1.6454,1.6207,1.608,1.6183,1.6104,1.608,1.6176,1.6195,1.6195,1.6195,1.6195,1.6195,1.6195,1.6195,1.6195,1.6195,1.6195,1.6195,1.6195,1.6195,1.6272,1.644,1.6441,1.6593,2.0157,2.0654,2.1131,2.1848,2.2036,2.2128,2.251,2.2577,2.2568,2.2568,2.2252,2.2091,0.0,0.0,2.283,2.3545,2.397,2.434,2.4742,2.48,2.48,0.0,0.0,0.0,0.0,0.0,0.0,2.4489,0.0,2.4672,2.4132,2.4122,2.4126,2.4127,2.3148,2.2459,2.2096,2.1441,2.0943,2.0624,2.0289,2.0122,2.0092,1.9839,1.9711,1.9676,1.9408,1.9296,1.9254,1.8328,1.7963,1.7954,1.7679,1.7562,1.754,1.7535,1.7514,1.7499,1.7499,1.7499,1.7499,1.7499,1.7499,1.7499,1.7499,1.7499,1.7499,1.7499,1.7499,1.7499,1.7499,1.7499,1.7499,1.7499,1.7499,1.7499,1.7499,1.7499,1.7499,1.7499,1.7499,1.7499,1.7499,1.7499,1.7499,1.7499,1.7275,1.7021,1.6754,1.6491,1.6418,1.667,1.6466,1.6424,1.6676,1.67,1.67,1.67,1.67,1.67,1.67,1.67,1.67,1.67,1.67,1.67,1.67,1.67,1.6706,1.6718,1.6718,1.6857,2.0917,2.1413,2.1837,2.233,2.245,2.247,2.2583,2.2367,2.2145,2.2145,2.183,2.1579,0.0,0.0,0.0,2.3179,2.3791,0.0,2.4742,2.48,0.0,0.0,0.0,2.4925,2.522,2.5253,0.0,0.0,2.5136,2.5069,2.547,2.4836,2.4467,2.447,2.35,2.2691,2.2111,2.1441,2.1062,2.0967,2.0632,2.0339,2.0098,2.0028,1.9864,1.9617,1.9335,1.9372,1.954,1.8854,1.872,1.8924,1.8654,1.8384,1.815,1.7952,1.7711,1.7499,1.7499,1.7499,1.7499,1.7499,1.7499,1.7499,1.7499,1.7499,1.7499,1.7499,1.7499,1.7499,1.7499,1.7499,1.7499,1.7499,1.7499,1.7499,1.7499,1.7499,1.7499,1.7499,1.7499,1.7499,1.7499,1.7499,1.7499,1.7499,1.7439,1.73,1.7033,1.6761,1.6622,1.6687,1.6641,1.6629,1.6687,1.67,1.67,1.67,1.67,1.67,1.67,1.67,1.67,1.67,1.67,1.67,1.67,1.67,1.6803,1.6997,1.6997,1.7142,2.1502,2.1956,2.2318,2.2536,2.26,2.2545,2.2376,2.2162,2.1908,2.1582,2.1197,0.0,0.0,0.0,0.0,0.0,0.0,0.0,2.4723,2.48,2.4867,0.0,2.5061,0.0,2.5583,2.5617,2.5764,0.0,2.5808,2.5783,2.6199,2.5756,2.5406,2.5256,2.4433,2.351,2.2543,2.1726,2.1322,2.1314,2.068,2.0361,2.0307,2.017,2.0076,2.0025,0.0,2.0,2.0272,1.9661,1.9525,1.9669,1.94,1.9003,1.856,1.8411,1.814,1.7824,1.7718,1.7676,1.7658,1.7543,1.7499,1.7499,1.7499,1.7499,1.7499,1.7499,1.7499,1.7499,1.7499,1.7499,1.7499,1.7499,1.7499,1.7499,1.7499,1.7499,1.7499,1.7499,1.7499,1.7499,1.7499,1.7499,1.7499,1.7499,1.7499,1.7452,1.7287,1.7039,1.6925,1.7039,1.6949,1.6917,1.7039,1.7051,1.7051,1.7051,1.7051,1.7051,1.7051,1.7051,1.7051,1.7051,1.7051,1.7051,1.7051,1.7051,1.713,1.7282,1.7282,1.7354,2.1967,2.2335,2.26,2.26,2.256,2.2427,2.2079,2.1876,2.1585,2.0946,0.0,2.026,2.0609,0.0,2.1271,2.2651,0.0,2.3881,2.4619,2.4809,2.5009,2.5354,2.544,2.5599,2.5948,2.5975,2.6151,2.6548,2.6582,2.6582,2.6582,2.659,2.6411,2.5984,2.5326,2.4386,2.3183,2.2206,2.171,2.1647,2.0696,2.0385,2.0648,2.0321,2.0353,2.0672,0.0,0.0,2.1128,2.0603,2.039,2.0356,2.0089,1.955,1.8921,1.8876,1.8632,1.8273,1.8025,1.7948,1.79,1.7603,1.7499,1.7499,1.7499,1.7499,1.7499,1.7499,1.7499,1.7499,1.7499,1.7499,1.7499,1.7499,1.7499,1.7499,1.7499,1.7499,1.7499,1.7499,1.7499,1.7499,1.7499,1.7499,1.7499,1.7499,1.7499,1.7499,1.7499,1.73,1.7239,1.7483,1.7287,1.7252,1.7475,1.7499,1.7499,1.7499,1.7499,1.7499,1.7499,1.7499,1.7499,1.7499,1.7499,1.7499,1.7499,1.7499,1.7499,1.7499,1.7499,1.7499,2.2393,2.2551,2.26,2.26,2.2352,2.2094,2.2019,2.1274,0.0,0.0,0.0,1.9406,1.9474,1.9992,0.0,2.1547,0.0,0.0,0.0,0.0,2.5322,0.0,0.0,0.0,0.0,0.0,0.0,0.0,0.0,0.0,2.7,2.6742,2.619,2.5295,2.4618,2.403,2.3526,2.2785,2.2292,2.2001,2.1275,2.0959,2.0998,2.0672,2.0704,2.1014,2.1014,0.0,2.1513,2.1403,2.136,2.1333,2.1065,2.038,1.9526,1.9299,1.8825,1.8287,1.8247,1.8229,1.8152,1.7663,1.7499,1.7499,1.7499,1.7499,1.7499,1.7499,1.7499,1.7499,1.7499,1.7499,1.7499,1.7499,1.7499,1.7499,1.7499,1.7499,1.7499,1.7499,1.7499,1.7499,1.7499,1.7499,1.7499,1.7499,1.7499,1.7499,1.7499,1.7457,1.7451,1.7501,1.7457,1.7451,1.7501,1.7499,1.7499,1.7499,1.7499,1.7499,1.7499,1.7499,1.7499,1.7499,1.7499,1.7499,1.7499,1.7499,1.7499,1.7499,1.7499,1.7499,2.2551,2.26,2.26,2.26,2.2301,2.1899,2.152,0.0,0.0,0.0,0.0,1.8892,1.8892,0.0,0.0,0.0,0.0,0.0,0.0,0.0,0.0,0.0,0.0,0.0,0.0,0.0,0.0,0.0,0.0,0.0,2.7095,2.6616,2.6122,2.5632,2.4633,2.4108,2.4123,2.3284,2.2871,2.2871,2.2205,2.197,2.2135,2.1789,2.182,2.2135,2.1962,0.0,2.2111,2.193,2.1647,2.1333,2.1199,2.0528,1.9629,1.9503,1.9138,1.8695,1.8563,1.8514,1.844,1.8049,1.782,1.7706,1.7706,1.761,1.7499,1.7499,1.7499,1.7499,1.7499,1.7499,1.7499,1.7499,1.7499,1.7499,1.7499,1.7499,1.7499,1.7499,1.7499,1.7499,1.7499,1.7499,1.7499,1.7499,1.7499,1.7499,1.7499,1.7499,1.7499,1.7499,1.7499,1.7499,1.7499,1.7499,1.7499,1.7499,1.7499,1.7499,1.7499,1.7499,1.7499,1.7499,1.7499,1.7499,1.7499,1.7499,1.7499,1.7499,1.7499,1.7499,2.2583,2.26,2.26,2.26,2.2234,2.1702,2.1046,2.0472,0.0,0.0,0.0,1.8473,0.0,0.0,0.0,0.0,0.0,0.0,0.0,0.0,0.0,0.0,0.0,0.0,0.0,0.0,0.0,0.0,0.0,0.0,2.7095,2.6525,2.6205,2.6205,2.5049,2.4548,2.4811,2.3961,2.3627,2.3813,2.3214,2.3066,2.3293,2.2887,2.2848,2.3082,2.2746,0.0,0.0,2.2103,2.16,2.099,2.099,2.0421,1.9601,1.9601,1.9386,1.9072,1.8859,1.8794,1.875,1.8544,1.8248,1.7984,1.7984,1.7845,1.7675,1.7675,1.7626,1.7591,1.7591,1.7542,1.7499,1.7499,1.7499,1.7499,1.7499,1.7499,1.7499,1.7499,1.7499,1.7499,1.7499,1.7499,1.7499,1.7499,1.7499,1.7499,1.7499,1.7499,1.7499,1.7499,1.7499,1.7499,1.7499,1.7499,1.7499,1.7499,1.7499,1.7499,1.7499,1.7499,1.7499,1.7499,1.7499,1.7499,1.7499,1.7499,1.7499,1.7499,1.7499,1.7499,2.2502,2.26,2.26,2.26,2.2023,2.1362,2.098,0.0,0.0,0.0,1.8312,1.8061,1.8061,0.0,0.0,0.0,0.0,0.0,0.0,0.0,0.0,0.0,0.0,0.0,0.0,0.0,0.0,0.0,0.0,0.0,0.0,2.6754,2.6548,2.6548,2.584,2.548,2.5511,2.5103,2.478,2.4502,2.4139,2.3976,2.3992,2.3354,2.3067,2.3082,2.2746,0.0,0.0,2.1655,2.1251,2.0648,2.0648,2.0221,1.9601,1.9601,1.9386,1.9096,1.9072,1.9066,1.906,1.9036,1.8683,1.8265,1.8265,1.8247,1.8229,1.8229,1.8049,1.7857,1.7857,1.7682,1.7499,1.7499,1.7499,1.7499,1.7499,1.7499,1.7499,1.7499,1.7499,1.7499,1.7499,1.7499,1.7499,1.7499,1.7499,1.7499,1.7499,1.7499,1.7499,1.7499,1.7499,1.7499,1.7499,1.7499,1.7499,1.7499,1.7499,1.7499,1.7499,1.7499,1.7499,1.7499,1.7499,1.7499,1.7499,1.7499,1.7499,1.7499,1.7499,1.7499,2.22,2.2425,2.26,2.26,2.1994,2.1245,2.0666,0.0,0.0,1.8367,1.8109,1.8005,1.8005,1.8656,0.0,0.0,0.0,0.0,0.0,0.0,0.0,0.0,0.0,0.0,0.0,0.0,0.0,0.0,0.0,0.0,0.0,2.6776,2.6593,2.6593,2.5947,2.5694,2.59,2.5572,2.5326,2.5203,2.4857,2.4487,2.4077,2.3604,2.3285,2.3082,2.2746,0.0,0.0,2.1466,2.0895,2.0275,2.0078,1.9711,1.9304,1.9304,1.9208,1.9102,1.9102,1.9102,1.9102,1.9102,1.8957,1.875,1.8593,1.8436,1.8301,1.8301,1.8223,1.814,1.814,1.8061,1.7975,1.7975,1.7975,1.7975,1.7975,1.7975,1.7975,1.7975,1.785,1.7736,1.7736,1.761,1.7499,1.7499,1.7499,1.7499,1.7499,1.7499,1.7499,1.7499,1.7499,1.7499,1.7499,1.7499,1.7499,1.7499,1.7499,1.7499,1.7499,1.7499,1.7499,1.7499,1.7499,1.7499,1.7499,1.7499,1.7499,1.7499,1.7499,1.7591,2.1764,2.2031,2.2247,2.2247,2.1742,2.1048,0.0,0.0,0.0,1.8169,1.8005,1.8005,1.8005,1.8557,1.9138,1.9491,2.0754,2.1851,0.0,0.0,0.0,0.0,0.0,0.0,0.0,0.0,0.0,0.0,0.0,0.0,0.0,2.6875,2.6754,2.6754,2.629,2.616,2.6387,2.616,2.5985,2.5885,2.5457,2.4895,2.4224,2.3704,2.3269,2.2933,0.0,0.0,0.0,2.1196,2.0561,1.9917,1.9584,1.9312,1.9102,1.9102,1.9102,1.9102,1.9102,1.9102,1.9102,1.9102,1.9102,1.9066,1.8879,1.8689,1.8538,1.8538,1.8476,1.8398,1.8319,1.8301,1.8301,1.8301,1.8301,1.8301,1.8301,1.8301,1.8301,1.8301,1.8146,1.802,1.802,1.7797,1.7622,1.7622,1.7555,1.7499,1.7499,1.7499,1.7499,1.7499,1.7499,1.7499,1.7499,1.7499,1.7499,1.7499,1.7499,1.7499,1.7499,1.7499,1.7499,1.7499,1.7499,1.7499,1.7499,1.7499,1.7543,1.7622,1.7622,1.7759,2.121,2.141,2.141,2.141,2.116,2.0691,0.0,0.0,0.0,1.8169,1.8005,1.8005,1.8005,1.8329,1.8741,1.9145,2.0174,2.1174,2.1901,0.0,0.0,0.0,0.0,0.0,0.0,0.0,0.0,0.0,0.0,0.0,0.0,2.7095,2.7088,2.7088,2.7088,2.7088,2.7088,2.7088,2.6913,2.6578,2.5908,2.5242,2.4564,2.3565,2.2918,0.0,0.0,0.0,0.0,2.0737,2.0205,1.9569,1.924,1.9102,1.9102,1.9102,1.9102,1.9102,1.9102,1.9102,1.9102,1.9102,1.9102,1.9102,1.9096,1.909,1.909,1.909,1.8903,1.8627,1.8368,1.8301,1.8301,1.8301,1.8301,1.8301,1.8301,1.8301,1.8301,1.8301,1.8301,1.8301,1.8301,1.8067,1.7901,1.7901,1.767,1.7499,1.7499,1.7499,1.7499,1.7499,1.7499,1.7499,1.7499,1.7499,1.7499,1.7499,1.7499,1.7499,1.7499,1.7499,1.7499,1.7499,1.7499,1.7499,1.7499,1.7499,1.764,1.7901,1.7901,1.8045,2.0452,2.0846,2.1057,2.1057,2.0774,2.0289,1.9527,0.0,0.0,1.8109,1.8005,1.8005,1.8005,1.8334,1.8732,1.9132,2.016,2.1057,0.0,0.0,0.0,0.0,0.0,0.0,0.0,0.0,0.0,0.0,0.0,0.0,0.0,2.7095,2.7095,2.7095,2.7095,2.7095,2.7095,2.7095,2.6822,2.625,2.5809,2.5011,2.3906,2.3588,0.0,0.0,0.0,0.0,0.0,2.0927,2.0339,1.9893,1.9326,1.9102,1.9102,1.9102,1.9102,1.9102,1.9102,1.9102,1.9102,1.9102,1.9102,1.9102,1.9102,1.9102,1.9102,1.9102,1.9042,1.8949,1.8865,1.8854,1.8854,1.8854,1.8854,1.8854,1.8854,1.8854,1.8854,1.8854,1.8702,1.8567,1.8567,1.835,1.8168,1.8168,1.8096,1.8055,1.8055,1.8055,1.8055,1.8055,1.8055,1.7898,1.753,1.7499,1.7499,1.7499,1.7499,1.7499,1.7499,1.7499,1.7591,1.7767,1.7773,1.7856,1.8055,1.8055,1.809,1.8182,1.8357,1.849,0.0,1.984,2.0069,2.022,2.0069,0.0,0.0,0.0,0.0,0.0,1.8005,1.8005,1.8005,1.8203,1.8559,1.9111,2.0032,2.0837,0.0,0.0,0.0,0.0,0.0,0.0,0.0,0.0,0.0,0.0,0.0,0.0,0.0,0.0,2.7095,2.7095,2.7095,2.7095,2.7095,2.7095,2.6829,2.6281,2.5946,2.5218,2.4154,2.3899,0.0,0.0,0.0,0.0,0.0,2.0959,2.0331,1.9861,1.9304,1.9102,1.9102,1.9102,1.9102,1.9102,1.9102,1.9102,1.9102,1.9102,1.9102,1.9102,1.9102,1.9102,1.9102,1.9102,1.9102,1.9102,1.9102,1.9102,1.9102,1.9102,1.9102,1.9102,1.9102,1.9102,1.9102,1.9102,1.8969,1.8846,1.8846,1.8629,1.8446,1.8446,1.8362,1.8301,1.8301,1.8301,1.8301,1.8301,1.8301,1.8155,1.7832,1.7801,1.7801,1.7801,1.7801,1.7801,1.7801,1.7801,1.788,1.8051,1.8049,1.8126,1.8301,1.8398,1.8446,1.846,1.8726,1.8846,0.0,1.8501,1.8646,1.9015,1.9145,1.9054,0.0,0.0,0.0,0.0,0.0,1.8005,1.8005,1.8022,1.8302,1.9066,1.9837,2.0597,0.0,0.0,0.0,0.0,0.0,0.0,0.0,0.0,0.0,0.0,0.0,0.0,0.0,2.7095,2.7095,2.7095,2.7095,2.7095,2.7095,2.7095,2.6936,2.6593,2.6281,2.5777,2.5087,2.4456,0.0,0.0,0.0,0.0,0.0,2.0848,2.0181,1.9569,1.9232,1.9102,1.9102,1.9102,1.9102,1.9102,1.9102,1.9102,1.9102,1.9102,1.9102,1.9102,1.9102,1.9102,1.9102,1.9102,1.9102,1.9102,1.9102,1.9102,1.9102,1.9102,1.9102,1.9102,1.9102,1.9102,1.9102,1.9102,1.9102,1.9102,1.9102,1.8889,1.8732,1.8732,1.852,1.8356,1.8356,1.8356,1.8356,1.8356,1.8356,1.8356,1.8356,1.8325,1.8301,1.8301,1.8301,1.8301,1.8301,1.8301,1.8313,1.8325,1.835,1.8356,1.8356,1.8611,1.8732,1.8732,1.8979,1.9102,1.6682,0.0,1.816,1.8259,1.8506,1.8638,0.0,0.0,0.0,0.0,0.0,1.8005,1.8005,1.8247,1.8619,1.912,2.0074,2.102,0.0,0.0,0.0,0.0,0.0,0.0,0.0,0.0,0.0,0.0,0.0,0.0,0.0,2.7095,2.7095,2.7095,2.7095,2.7095,2.7095,2.7095,2.6936,2.6593,2.6517,2.5999,2.5096,2.4942,0.0,0.0,0.0,0.0,2.1529,2.0597,1.997,1.9569,1.9232,1.9102,1.9102,1.9102,1.9102,1.9102,1.9102,1.9102,1.9102,1.9102,1.9102,1.9102,1.9102,1.9102,1.9102,1.9102,1.9102,1.9102,1.9102,1.9102,1.9102,1.9102,1.9102,1.9102,1.9102,1.9102,1.9102,1.9102,1.9102,1.9102,1.9102,1.9048,1.9005,1.9005,1.8949,1.8907,1.8907,1.8907,1.8907,1.8907,1.8907,1.8907,1.8907,1.8538,1.8301,1.8301,1.8301,1.8301,1.8301,1.8301,1.8406,1.8597,1.8812,1.8907,1.8907,1.8981,1.9005,1.9005,1.9072,1.9102,1.6206,1.689,1.7544,1.7722,1.8047,1.8269,1.8052,0.0,0.0,0.0,0.0,0.0,1.8239,0.0,0.0,1.9615,2.0514,0.0,0.0,0.0,0.0,0.0,0.0,0.0,0.0,0.0,0.0,0.0,0.0,0.0,0.0,2.7095,2.7095,2.7095,2.7095,2.7095,2.7095,2.7095,2.7012,2.6829,2.6678,2.6228,2.5541,2.508,2.4317,0.0,0.0,0.0,2.0858,2.016,1.9673,1.9352,1.9168,1.9102,1.9102,1.9102,1.9102,1.9102,1.9102,1.9102,1.9102,1.9102,1.9102,1.9102,1.9102,1.9102,1.9102,1.9102,1.9102,1.9102,1.9102,1.9102,1.9102,1.9102,1.9102,1.9102,1.9102,1.9102,1.9102,1.9102,1.9102,1.9102,1.9102,1.9199,1.9277,1.9277,1.9277,1.9277,1.9277,1.9183,1.9102,1.9102,1.9102,1.9102,1.9102,1.8828,1.8665,1.8665,1.8665,1.8665,1.8665,1.8665,1.8738,1.8877,1.903,1.9102,1.9102,1.9102,1.9163,1.9277,1.9277,1.935,1.6147,1.6548,1.7003,1.74,1.7744,1.8005,1.8005,0.0,0.0,0.0,0.0,0.0,0.0,0.0,0.0,0.0,0.0,0.0,0.0,0.0,0.0,0.0,0.0,0.0,0.0,0.0,0.0,0.0,0.0,0.0,0.0,2.7095,2.7095,2.7095,2.7095,2.7095,2.7095,2.7095,2.7095,2.7095,2.6761,2.6365,2.5907,2.4911,2.3875,0.0,0.0,0.0,2.0001,1.9657,1.936,1.9102,1.9102,1.9102,1.9102,1.9102,1.9102,1.9102,1.9102,1.9102,1.9102,1.9102,1.9102,1.9102,1.9102,1.9102,1.9102,1.9102,1.9102,1.9102,1.9102,1.9102,1.9102,1.9102,1.9102,1.9102,1.9102,1.9132,1.9157,1.9157,1.9193,1.9223,1.9223,1.941,1.9564,1.9564,1.9564,1.9564,1.9564,1.9362,1.9223,1.9223,1.9223,1.9223,1.9223,1.9223,1.9223,1.9223,1.9152,1.9102,1.9102,1.9102,1.9102,1.9102,1.9102,1.912,1.9157,1.9157,1.9304,1.9564,1.9564,1.9682,1.5856,1.6378,1.7003,1.74,1.7744,1.8005,1.8005,0.0,0.0,0.0,0.0,0.0,0.0,0.0,0.0,0.0,0.0,0.0,0.0,0.0,0.0,0.0,0.0,0.0,0.0,0.0,0.0,0.0,0.0,0.0,0.0,0.0,2.7095,2.7095,2.7095,2.7095,2.7095,2.7095,2.7095,2.7095,2.6761,2.6129,2.5217,2.4216,2.3043,0.0,0.0,2.0081,1.9649,1.9312,1.9144,1.9102,1.9102,1.9102,1.9102,1.9102,1.9102,1.9102,1.9102,1.9102,1.9102,1.9102,1.9102,1.9102,1.9102,1.9102,1.9102,1.9102,1.9102,1.9102,1.9102,1.9102,1.9102,1.9102,1.9102,1.9102,1.9102,1.9285,1.9443,1.9443,1.9622,1.9783,1.9783,1.9813,1.9837,1.9837,1.9837,1.9837,1.9837,1.9801,1.9783,1.9783,1.9783,1.9783,1.9783,1.9783,1.9783,1.9783,1.935,1.9102,1.9102,1.9102,1.9102,1.9102,1.9102,1.9211,1.9443,1.9443,1.9582,1.9837,1.9837,1.9861,1.6067,1.6499,1.7003,1.74,1.7744,1.8061,0.0,0.0,0.0,0.0,0.0,0.0,0.0,0.0,0.0,0.0,0.0,0.0,0.0,0.0,0.0,0.0,0.0,0.0,0.0,0.0,0.0,0.0,0.0,0.0,0.0,0.0,2.7095,2.7095,2.7095,2.7095,2.7095,2.7095,2.7095,2.7088,2.6578,2.58,2.4787,2.3596,2.2331,2.1014,0.0,1.9641,1.932,1.916,1.9102,1.9102,1.9102,1.9102,1.9102,1.9102,1.9102,1.9102,1.9102,1.9102,1.9102,1.9102,1.9102,1.9102,1.9102,1.9102,1.9126,1.9279,1.9211,1.9132,1.9285,1.9322,1.935,1.9501,1.9529,1.9529,1.9529,1.9634,1.9719,1.9719,1.9819,1.9904,1.9904,2.0018,2.0123,2.0123,2.0123,2.0123,2.0123,1.9994,1.9904,1.9904,1.9904,1.9904,1.9904,1.9904,1.9904,1.9904,1.9529,1.9322,1.9322,1.9183,1.9171,1.9308,1.9322,1.9455,1.9719,1.9719,1.9849,2.0123,2.0123,2.0187,1.6179,1.6572,1.7003,1.74,0.0,1.8216,0.0,0.0,0.0,0.0,0.0,0.0,0.0,0.0,0.0,0.0,0.0,0.0,0.0,0.0,0.0,0.0,0.0,0.0,0.0,0.0,0.0,0.0,0.0,0.0,0.0,0.0,2.7095,2.7095,2.7095,2.7095,2.7095,2.7095,2.7095,2.7088,2.6426,2.5571,2.4548,2.3214,2.1907,2.068,2.0014,1.9536,1.9216,1.9216,1.9168,1.9102,1.9102,1.9144,1.9216,1.9216,1.9264,1.931,1.9144,1.9144,1.92,1.9134,1.9102,1.9102,1.9102,1.9144,1.9243,1.9443,1.94,1.933,1.9545,1.9586,1.9654,1.9849,1.9904,1.9904,1.9904,1.9952,1.9994,1.9994,2.0043,2.0085,2.0085,2.0262,2.0395,2.0395,2.0395,2.0395,2.0395,2.0212,2.0085,2.0085,2.0085,2.0085,2.0085,2.0085,2.0085,2.0085,1.9779,1.9586,1.9586,1.9406,1.9378,1.9594,1.9586,1.9725,1.9994,1.9994,2.0127,2.0395,2.0395,2.0504,1.5835,1.6361,1.7003,1.74,0.0,0.0,0.0,0.0,0.0,0.0,0.0,0.0,0.0,0.0,0.0,0.0,0.0,0.0,0.0,0.0,0.0,0.0,0.0,0.0,0.0,0.0,0.0,0.0,0.0,0.0,0.0,0.0,0.0,2.7095,2.7095,2.7095,2.7095,2.7095,2.7095,2.7088,2.6426,2.5571,2.4548,2.3214,2.204,2.103,2.0354,1.9869,1.9561,1.9561,1.9384,1.9102,1.9102,1.9288,1.9561,1.9561,1.9759,1.9939,1.9318,1.9304,1.9514,1.92,1.9102,1.9102,1.9102,1.9271,1.9479,1.9491,1.9664,1.9849,1.9867,1.9873,1.9879,1.9898,1.9904,1.9904,1.9904,2.0097,2.0275,2.0275,2.0474,2.0637,2.0637,2.0664,2.0676,2.0676,2.0676,2.0676,2.0676,2.0649,2.0637,2.0637,2.0637,2.0637,2.0637,2.0637,2.0637,2.0637,2.0166,1.9873,1.9873,1.9847,1.9847,1.9873,1.9873,2.0,2.0275,2.0275,2.0413,2.0676,2.0676,2.0682,1.5805,1.6344,1.7003,1.74,0.0,0.0,0.0,0.0,0.0,0.0,0.0,0.0,0.0,0.0,0.0,0.0,0.0,0.0,0.0,0.0,0.0,0.0,0.0,0.0,0.0,0.0,0.0,0.0,0.0,0.0,0.0,0.0,0.0,2.7095,2.7095,2.7095,2.7095,2.7095,2.7095,2.7088,2.6632,2.5884,2.488,2.3946,2.2865,2.1678,2.1014,2.0531,2.0189,1.9769,1.953,1.9416,1.9416,1.9616,1.9909,1.9909,1.9989,2.0059,1.9811,1.9797,1.9893,1.9757,1.9717,1.9678,1.9472,1.9598,1.9799,1.9764,1.994,2.0145,2.0145,2.0145,2.0187,2.0359,2.0395,2.0395,2.0395,2.0474,2.0546,2.0546,2.0625,2.07,2.07,2.07,2.07,2.07,2.07,2.07,2.07,2.07,2.07,2.07,2.07,2.07,2.07,2.07,2.07,2.07,2.0345,2.0145,2.0145,1.9994,1.9982,2.0154,2.0145,2.0281,2.0546,2.0546,2.0595,2.07,2.07,2.07,1.5925,1.6417,1.705,0.0,0.0,0.0,0.0,0.0,0.0,0.0,0.0,0.0,0.0,0.0,0.0,0.0,0.0,0.0,0.0,0.0,0.0,0.0,0.0,0.0,0.0,0.0,0.0,0.0,0.0,0.0,0.0,0.0,0.0,0.0,2.7095,2.7095,2.7095,2.7095,2.7095,2.7095,2.6867,2.6297,2.5394,2.4718,2.3798,2.2692,2.2025,2.1418,2.0856,2.0191,1.9793,1.9625,1.9833,2.006,2.0258,2.0258,2.0321,2.0393,2.017,2.017,2.0242,2.013,2.0098,2.007,1.9929,1.9995,2.0125,2.0172,2.0302,2.0426,2.0426,2.0426,2.0474,2.0658,2.07,2.07,2.07,2.07,2.07,2.07,2.07,2.07,2.07,2.07,2.07,2.07,2.07,2.07,2.07,2.07,2.07,2.07,2.07,2.07,2.07,2.07,2.07,2.07,2.0531,2.0426,2.0426,2.0256,2.0244,2.0426,2.0426,2.0525,2.07,2.07,2.07,2.0698,2.0791,2.0827,1.6206,1.6595,0.0,0.0,0.0,0.0,0.0,0.0,0.0,0.0,0.0,0.0,0.0,0.0,0.0,0.0,0.0,0.0,0.0,0.0,0.0,0.0,0.0,0.0,0.0,0.0,0.0,0.0,0.0,0.0,0.0,0.0,0.0,0.0,2.7095,2.7095,2.7095,2.7095,2.7095,2.7095,2.7095,2.6754,2.6083,2.5409,2.4741,2.4069,2.3386,2.2534,2.1544,2.0886,2.0205,1.9681,2.034,2.0601,2.0601,2.0601,2.0808,2.1006,2.0339,2.0329,2.0553,2.0218,2.0106,2.0157,2.0421,2.0462,2.0464,2.0728,2.0752,2.07,2.07,2.07,2.07,2.07,2.07,2.07,2.07,2.07,2.07,2.07,2.07,2.07,2.07,2.07,2.07,2.07,2.07,2.07,2.07,2.07,2.07,2.07,2.07,2.07,2.07,2.07,2.07,2.07,2.07,2.07,2.07,2.07,2.07,2.07,2.07,2.07,2.0698,2.0698,2.0712,2.071,2.0978,2.1099,1.6206,1.6798,0.0,0.0,0.0,0.0,0.0,0.0,0.0,0.0,0.0,0.0,0.0,0.0,0.0,0.0,0.0,0.0,0.0,0.0,0.0,0.0,0.0,0.0,0.0,0.0,0.0,0.0,0.0,0.0,0.0,0.0,0.0,0.0,2.7095,2.7095,2.7095,2.7095,2.7095,2.7095,2.7095,2.6867,2.6441,2.5998,2.531,2.4394,2.3487,2.266,2.1883,2.0967,2.0482,2.0316,2.0521,2.0737,2.0951,2.0951,2.1014,2.1069,2.0872,2.0872,2.0942,2.0839,2.0799,2.0812,2.0843,2.0973,2.1065,2.0857,2.0923,2.0997,2.0761,2.07,2.07,2.07,2.07,2.07,2.07,2.07,2.07,2.07,2.07,2.07,2.07,2.07,2.07,2.07,2.07,2.07,2.07,2.07,2.07,2.07,2.07,2.07,2.07,2.07,2.07,2.07,2.07,2.07,2.07,2.07,2.07,2.07,2.07,2.0797,2.0978,2.0978,2.1081,2.1257,2.1344,2.138,1.6442,0.0,0.0,0.0,0.0,0.0,0.0,0.0,0.0,0.0,0.0,0.0,0.0,0.0,0.0,0.0,0.0,0.0,0.0,0.0,0.0,0.0,0.0,0.0,0.0,0.0,0.0,0.0,0.0,0.0,0.0,0.0,0.0,0.0,2.7095,2.7095,2.7095,2.7095,2.7095,2.7095,2.7095,2.6913,2.6586,2.6387,2.5754,2.471,2.3168,2.2119,2.1464,2.0848,2.0601,2.0609,2.0751,2.0919,2.1101,2.1101,2.1101,2.1101,2.1101,2.1101,2.1101,2.1101,2.1101,2.1135,2.1338,2.1401,2.1375,2.1242,2.1195,2.1118,2.0787,2.07,2.07,2.07,2.07,2.07,2.07,2.07,2.07,2.07,2.07,2.07,2.07,2.07,2.07,2.07,2.07,2.07,2.07,2.07,2.07,2.07,2.07,2.07,2.07,2.07,2.07,2.07,2.07,2.07,2.07,2.07,2.07,2.07,2.0803,2.0936,2.1102,2.1208,2.1338,2.1498,2.1616,2.1664,0.0,0.0,0.0,0.0,0.0,0.0,0.0,0.0,0.0,0.0,0.0,0.0,0.0,0.0,0.0,0.0,0.0,0.0,0.0,0.0,0.0,0.0,0.0,0.0,0.0,0.0,0.0,0.0,0.0,0.0,0.0,0.0,0.0,0.0,2.7095,2.7095,2.7095,2.7095,2.7095,0.0,2.7073,2.6875,2.6548,2.6517,2.5884,2.4702,2.2505,2.1196,2.0601,2.0601,2.0624,2.068,2.0975,2.1101,2.1101,2.1101,2.1101,2.1101,2.1101,2.1101,2.1101,2.1101,2.1121,2.1248,2.1833,2.1765,2.1531,2.1742,2.1542,2.117,2.0796,2.07,2.07,2.07,2.07,2.07,2.07,2.07,2.07,2.07,2.07,2.07,2.07,2.07,2.07,2.07,2.07,2.07,2.07,2.07,2.07,2.07,2.07,2.07,2.07,2.07,2.07,2.07,2.07,2.07,2.07,2.07,2.0712,2.0736,2.0981,2.1117,2.1172,2.1417,2.1547,2.1577,2.1822,2.1946,0.0,0.0,0.0,0.0,0.0,0.0,0.0,0.0,0.0,0.0,0.0,0.0,0.0,0.0,0.0,0.0,0.0,0.0,0.0,0.0,0.0,0.0,0.0,0.0,0.0,0.0,0.0,0.0,0.0,0.0,0.0,0.0,0.0,2.7095,2.7095,2.7095,2.7095,2.7095,2.7095,0.0,2.6829,2.6525,2.6197,2.5939,2.4695,2.2684,2.1663,2.0975,2.0601,2.0601,2.0759,2.0998,2.1069,2.1101,2.1101,2.1101,2.1101,2.1101,2.1101,2.1101,2.1101,2.1101,2.1277,2.1563,2.1902,2.2086,2.213,2.1876,2.174,2.1516,2.0865,2.07,2.07,2.07,2.07,2.07,2.07,2.07,2.07,2.07,2.07,2.07,2.07,2.07,2.07,2.07,2.07,2.07,2.07,2.07,2.07,2.07,2.07,2.07,2.07,2.07,2.07,2.07,2.07,2.07,2.07,2.07,2.0803,2.1008,2.1072,2.1305,2.1734,2.1794,2.1918,2.2133,2.2187,2.2212,0.0,0.0,0.0,0.0,0.0,0.0,0.0,0.0,0.0,0.0,0.0,0.0,0.0,0.0,0.0,0.0,0.0,0.0,0.0,0.0,0.0,0.0,0.0,0.0,0.0,0.0,0.0,0.0,0.0,0.0,0.0,2.6814,2.6814,2.6814,2.7001,2.7095,2.7095,2.7095,2.7095,2.7095,2.6761,2.609,2.5118,2.4464,2.323,2.1568,2.0738,2.0278,2.0133,2.0291,2.0561,2.0886,2.1038,2.1101,2.1101,2.1101,2.1101,2.1101,2.1101,2.1101,2.1101,2.1101,2.1333,2.165,2.1922,2.2191,2.2318,2.1906,2.18,2.1628,2.0891,2.07,2.07,2.07,2.07,2.07,2.07,2.07,2.07,2.07,2.07,2.07,2.07,2.07,2.07,2.07,2.07,2.07,2.07,2.07,2.07,2.07,2.07,2.07,2.07,2.07,2.07,2.07,2.0821,2.0888,2.0888,2.1012,2.1093,2.1102,2.1353,2.1625,2.19,2.2036,2.2163,2.2296,2.2296,2.2296,0.0,0.0,0.0,0.0,0.0,0.0,0.0,0.0,0.0,0.0,0.0,0.0,0.0,0.0,0.0,0.0,0.0,0.0,0.0,0.0,0.0,0.0,0.0,0.0,0.0,0.0,0.0,0.0,0.0,0.0,2.6404,2.6404,2.6404,2.6404,2.6721,2.6891,2.6891,2.6891,2.6925,2.6994,2.6553,2.5487,2.3891,2.2894,2.1907,2.0959,2.0008,1.9633,1.9711,1.9989,2.0329,2.0705,2.099,2.1101,2.1101,2.1101,2.1101,2.1101,2.1101,2.1101,2.1101,2.1101,2.1359,2.1711,2.1927,2.2233,2.2393,2.1934,2.18,2.1628,2.0891,2.07,2.07,2.07,2.07,2.07,2.07,2.07,2.07,2.07,2.07,2.07,2.07,2.07,2.07,2.07,2.07,2.07,2.07,2.0742,2.0773,2.0773,2.0815,2.0845,2.0845,2.0845,2.0845,2.0845,2.1051,2.1166,2.1166,2.1429,2.1465,2.1238,2.1664,2.1918,2.1967,2.2193,2.2296,2.2296,2.2296,2.2296,0.0,0.0,0.0,0.0,0.0,0.0,0.0,0.0,0.0,0.0,0.0,0.0,0.0,0.0,0.0,0.0,0.0,0.0,0.0,0.0,0.0,0.0,0.0,0.0,0.0,0.0,0.0,0.0,0.0,0.0,2.5975,2.5975,2.5975,2.5975,2.6033,2.6059,2.6059,2.6059,2.6236,2.6568,2.5707,2.4572,2.3199,2.219,2.1339,2.0632,1.9912,1.9759,2.0043,2.0082,2.0466,2.1038,2.1077,2.1101,2.1101,2.1101,2.1101,2.1101,2.1101,2.1101,2.1101,2.1101,2.1483,2.1954,2.1994,2.2397,2.2693,2.1994,2.18,2.1628,2.0891,2.07,2.07,2.07,2.07,2.07,2.07,2.07,2.07,2.07,2.07,2.07,2.07,2.07,2.07,2.07,2.07,2.07,2.07,2.09,2.1054,2.1054,2.1253,2.139,2.139,2.139,2.139,2.139,2.1435,2.1453,2.1453,2.1698,2.1828,2.1791,2.1864,2.2009,2.2248,2.2284,2.2296,2.2296,2.2296,2.2296,0.0,0.0,0.0,0.0,0.0,0.0,0.0,0.0,0.0,0.0,0.0,0.0,0.0,0.0,0.0,0.0,0.0,0.0,0.0,0.0,0.0,0.0,0.0,0.0,0.0,0.0,0.0,0.0,0.0,2.5617,2.5617,2.5617,2.5617,2.5617,2.5801,2.5898,2.5898,2.5898,2.5887,2.5881,2.5304,2.4444,2.3289,2.2324,2.1314,2.0289,1.9815,1.9584,1.955,1.9741,1.999,2.0278,2.0474,2.0648,2.0816,2.0816,2.0943,2.1101,2.1101,2.1101,2.1101,2.1101,2.151,2.2001,2.2001,2.2264,2.2456,2.1938,2.1645,2.1352,2.083,2.07,2.07,2.07,2.07,2.07,2.07,2.07,2.07,2.07,2.07,2.07,2.07,2.07,2.07,2.07,2.07,2.0746,2.09,2.1029,2.1154,2.1308,2.1435,2.1498,2.1498,2.1498,2.1498,2.1498,2.1646,2.1716,2.1716,2.1979,2.2118,2.2118,2.2118,2.2181,2.2296,2.2296,2.2296,2.2296,2.2296,2.2296,0.0,0.0,0.0,0.0,0.0,0.0,0.0,0.0,0.0,0.0,0.0,0.0,0.0,0.0,0.0,0.0,0.0,0.0,0.0,0.0,0.0,0.0,0.0,0.0,0.0,0.0,0.0,0.0,0.0,2.5253,2.5253,2.5253,2.5253,2.5253,2.5492,2.5624,2.5624,2.5717,2.5601,2.5267,2.5092,2.4521,2.3589,2.264,2.1524,2.0329,1.9823,1.9458,1.9248,1.9498,1.9649,1.9751,2.0003,2.025,2.0466,2.0466,2.0688,2.0967,2.0967,2.103,2.1101,2.1101,2.1439,2.1852,2.1852,2.1997,2.2095,2.1749,2.143,2.1118,2.0787,2.07,2.07,2.07,2.07,2.07,2.07,2.07,2.07,2.07,2.07,2.07,2.07,2.07,2.0716,2.0791,2.0803,2.09,2.1166,2.1262,2.1377,2.1577,2.1655,2.1698,2.1698,2.1698,2.1698,2.1698,2.1888,2.1997,2.1997,2.2193,2.2296,2.2296,2.2296,2.2296,2.2296,2.2296,2.2296,2.2296,2.2296,2.2296,0.0,0.0,0.0,0.0,0.0,0.0,0.0,0.0,0.0,0.0,0.0,0.0,0.0,0.0,0.0,0.0,0.0,0.0,0.0,0.0,0.0,0.0,0.0,0.0,0.0,0.0,0.0,0.0,0.0,2.4826,2.4826,2.4826,2.4826,2.4826,2.4852,2.486,2.486,2.5238,2.526,2.4931,2.4976,2.4638,2.3937,2.2943,2.1956,2.099,2.0024,1.9593,1.9577,1.9593,1.9791,2.0082,2.009,2.0106,2.013,2.013,2.0339,2.0632,2.0632,2.0831,2.1101,2.1101,2.1253,2.1431,2.1431,2.1625,2.174,2.1343,2.1222,2.1118,2.0787,2.07,2.07,2.07,2.07,2.07,2.07,2.07,2.07,2.07,2.07,2.07,2.07,2.07,2.0791,2.1039,2.1084,2.1178,2.1438,2.1701,2.1864,2.1885,2.2109,2.226,2.226,2.226,2.226,2.226,2.2272,2.2278,2.2278,2.229,2.2296,2.2296,2.2296,2.2296,2.2296,2.2296,2.2296,2.2296,2.2296,2.2296,0.0,0.0,0.0,0.0,0.0,0.0,0.0,0.0,0.0,0.0,0.0,0.0,0.0,0.0,0.0,0.0,0.0,0.0,0.0,0.0,0.0,0.0,0.0,0.0,0.0,0.0,0.0,0.0,0.0,0.0,2.48,2.48,2.48,2.48,2.48,2.48,2.48,2.4942,2.4955,2.4843,2.4894,2.4612,2.3971,2.318,2.219,2.1062,2.0259,1.9686,1.928,1.928,1.9352,1.9462,1.9462,1.959,1.9783,1.9783,1.9989,2.0313,2.0529,2.068,2.0783,2.0783,2.1066,2.1365,2.1142,2.1236,2.1378,2.1239,2.1049,2.0847,2.0726,2.07,2.07,2.07,2.07,2.07,2.07,2.07,2.07,2.07,2.07,2.07,2.07,2.0845,2.0984,2.109,2.125,2.1453,2.1719,2.184,2.197,2.2139,2.2242,2.2296,2.2296,2.2296,2.2296,2.2296,2.2296,2.2296,2.2296,2.2296,2.2296,2.2296,2.2296,2.2296,2.2296,2.2296,2.2296,2.2296,2.2296,2.2296,1.5039,0.0,0.0,0.0,0.0,0.0,0.0,0.0,0.0,0.0,0.0,0.0,0.0,0.0,0.0,0.0,0.0,0.0,0.0,0.0,0.0,0.0,0.0,0.0,0.0,0.0,0.0,0.0,0.0,0.0,2.48,2.48,2.48,2.48,2.48,2.48,2.48,2.48,2.48,2.4793,2.485,2.4617,2.4144,2.3359,2.2374,2.122,2.0442,1.9717,1.9102,1.9102,1.9102,1.9102,1.9102,1.924,1.9426,1.9426,1.9639,1.9965,2.0189,2.0339,2.0426,2.0426,2.0725,2.1018,2.08,2.0864,2.1023,2.1023,2.0873,2.07,2.07,2.07,2.07,2.07,2.07,2.07,2.07,2.07,2.07,2.07,2.07,2.073,2.0821,2.0978,2.1154,2.1341,2.1519,2.1731,2.1997,2.2027,2.2093,2.2278,2.2296,2.2296,2.2296,2.2296,2.2296,2.2296,2.2296,2.2296,2.2296,2.2296,2.2296,2.2296,2.2296,2.2296,2.2296,2.2296,2.2296,2.2296,2.2296,2.2296,0.0,0.0,0.0,0.0,0.0,0.0,0.0,0.0,0.0,0.0,0.0,0.0,0.0,0.0,0.0,0.0,0.0,0.0,0.0,0.0,0.0,0.0,0.0,0.0,0.0,0.0,0.0,0.0,0.0,2.48,2.48,2.48,2.48,2.48,2.48,2.48,2.48,2.48,2.48,2.48,2.48,2.4689,2.445,2.3448,2.2476,2.153,2.0529,1.9717,1.9102,1.9102,1.9102,1.9102,1.9102,1.9102,1.9102,1.9102,1.9312,1.9585,1.9601,1.9807,2.0097,2.0095,2.0234,2.0406,2.0404,2.0544,2.07,2.07,2.07,2.07,2.07,2.07,2.07,2.07,2.07,2.07,2.07,2.07,2.07,2.07,2.0712,2.0797,2.106,2.1105,2.1299,2.1822,2.1915,2.2012,2.2266,2.2296,2.2296,2.2296,2.2296,2.2296,2.2296,2.2296,2.2296,2.2296,2.2296,2.2296,2.2296,2.2296,2.2296,2.2296,2.2296,2.2296,2.2296,2.2296,2.2296,2.2296,2.2296,2.2296,1.5035,0.0,0.0,0.0,0.0,0.0,0.0,0.0,0.0,0.0,0.0,0.0,0.0,0.0,0.0,0.0,0.0,0.0,0.0,0.0,0.0,0.0,0.0,0.0,0.0,0.0,0.0,0.0,2.48,2.48,2.48,2.48,2.48,2.48,2.48,2.48,2.48,2.48,2.48,2.48,2.48,2.4534,2.4044,2.3324,2.236,2.12,2.043,1.9717,1.9102,1.9102,1.9102,1.9102,1.9102,1.9102,1.9102,1.9102,1.9166,1.9272,1.9522,1.9657,1.9766,1.9963,2.0203,2.0387,2.0346,2.0494,2.07,2.07,2.07,2.07,2.07,2.07,2.07,2.07,2.07,2.07,2.07,2.07,2.07,2.07,2.0857,2.1008,2.109,2.142,2.1725,2.1885,2.2073,2.2218,2.229,2.2296,2.2296,2.2296,2.2296,2.2296,2.2296,2.2296,2.2296,2.2296,2.2296,2.2296,2.2296,2.2296,2.2296,2.2296,2.2296,2.2296,2.2296,2.2296,2.2296,2.2296,2.2296,2.2296,1.5292,0.0,0.0,0.0,0.0,0.0,1.8523,1.9287,0.0,0.0,0.0,0.0,0.0,0.0,0.0,0.0,0.0,0.0,0.0,0.0,0.0,0.0,0.0,0.0,0.0,0.0,0.0,2.48,2.48,2.48,2.48,2.48,2.48,2.48,2.48,2.48,2.48,2.48,2.48,2.48,2.48,2.4484,2.3877,2.3278,2.2301,2.1054,2.039,1.9717,1.9102,1.9102,1.9102,1.9102,1.9102,1.9102,1.9102,1.9102,1.9102,1.9134,1.932,1.9386,1.9443,1.9695,1.9971,2.0197,2.0279,2.0486,2.07,2.07,2.07,2.07,2.07,2.07,2.07,2.07,2.07,2.07,2.07,2.07,2.07,2.07,2.0927,2.1144,2.125,2.1625,2.1946,2.2054,2.2199,2.2296,2.2296,2.2296,2.2296,2.2296,2.2296,2.2296,2.2296,2.2296,2.2296,2.2296,2.2296,2.2296,2.2296,2.2296,2.2296,2.2296,2.2296,2.2296,2.2296,2.2296,2.2296,2.2296,2.2296,2.2296,1.5814,0.0,0.0,0.0,0.0,0.0,1.7797,1.8562,1.9329,0.0,0.0,0.0,0.0,0.0,0.0,0.0,0.0,0.0,0.0,0.0,0.0,0.0,0.0,0.0,0.0,2.48,2.48,2.48,2.48,2.48,2.48,2.48,2.48,2.48,2.48,2.48,2.48,2.48,2.48,2.48,2.48,2.4481,2.3878,2.3285,2.2301,2.1052,2.0393,1.9717,1.9102,1.9102,1.9102,1.9102,1.9102,1.9102,1.9102,1.9102,1.9102,1.9102,1.9102,1.912,1.9187,1.9461,1.9725,1.9994,2.026,2.051,2.07,2.07,2.07,2.07,2.07,2.07,2.07,2.07,2.07,2.07,2.07,2.07,2.07,2.07,2.0942,2.122,2.1465,2.1749,2.203,2.226,2.2296,2.2296,2.2296,2.2296,2.2296,2.2296,2.2296,2.2296,2.2296,2.2296,2.2296,2.2296,2.2296,2.2296,2.2296,2.2296,2.2296,2.2296,2.2296,2.2296,2.2296,2.2296,2.2296,2.2296,2.2296,2.2296,0.0,0.0,0.0,0.0,0.0,0.0,1.7558,1.8175,1.8849,0.0,0.0,0.0,0.0,0.0,0.0,0.0,0.0,0.0,0.0,0.0,0.0,0.0,0.0,0.0,0.0,2.48,2.48,2.48,2.48,2.48,2.48,2.48,2.48,2.48,2.48,2.48,2.48,2.48,2.48,2.48,2.48,2.4479,2.3883,2.3278,2.2274,2.0989,2.0373,1.9717,1.9102,1.9102,1.9102,1.9102,1.9102,1.9102,1.9102,1.9102,1.9102,1.9102,1.9102,1.9235,1.9467,1.9728,2.0,2.0266,2.054,2.0664,2.07,2.07,2.07,2.07,2.07,2.07,2.07,2.07,2.07,2.07,2.07,2.07,2.07,2.07,2.109,2.1441,2.1486,2.19,2.2242,2.229,2.2296,2.2296,2.2296,2.2296,2.2296,2.2296,2.2296,2.2296,2.2296,2.2296,2.2296,2.2296,2.2296,2.2296,2.2296,2.2296,2.2296,2.2296,2.2296,2.2296,2.2296,2.2296,2.2296,2.2296,2.2296,2.2296,0.0,0.0,0.0,1.7446,0.0,0.0,0.0,1.7922,1.8406,0.0,0.0,0.0,0.0,0.0,0.0,0.0,0.0,0.0,0.0,0.0,0.0,0.0,0.0,0.0,0.0,2.4502,2.4579,2.4776,2.48,2.48,2.48,2.48,2.48,2.48,2.48,2.48,2.48,2.48,2.48,2.48,2.48,2.4411,2.3679,2.3211,2.22,2.077,2.0299,1.9717,1.9102,1.9102,1.9102,1.9102,1.9102,1.9102,1.9102,1.9102,1.9102,1.912,1.9247,1.9388,1.957,1.9972,2.0187,2.0353,2.0619,2.07,2.07,2.07,2.07,2.07,2.07,2.07,2.07,2.07,2.07,2.07,2.07,2.07,2.0742,2.0869,2.1223,2.1498,2.1498,2.1942,2.2296,2.2296,2.2296,2.2296,2.2296,2.2296,2.2296,2.2296,2.2296,2.2296,2.2296,2.2296,2.2296,2.2296,2.2296,2.2296,2.2296,2.2296,2.2296,2.2296,2.2296,2.2296,2.2296,2.2296,2.2296,2.2296,2.2296,2.2296,0.0,0.0,0.0,0.0,0.0,1.8008,0.0,0.0,0.0,0.0,0.0,0.0,0.0,0.0,0.0,0.0,0.0,0.0,0.0,0.0,0.0,0.0,0.0,0.0,0.0,2.41,2.4242,2.4559,2.4653,2.4682,2.4682,2.4757,2.48,2.48,2.48,2.48,2.48,2.48,2.48,2.48,2.4745,2.4292,2.349,2.3087,2.2058,2.0581,2.0251,1.9717,1.9102,1.9102,1.9102,1.9102,1.9102,1.9102,1.9102,1.9102,1.9102,1.9138,1.9406,1.9525,1.966,2.0142,2.0326,2.042,2.0631,2.07,2.07,2.07,2.07,2.07,2.07,2.07,2.07,2.07,2.07,2.07,2.07,2.07,2.0779,2.1054,2.1323,2.1525,2.1574,2.1979,2.2296,2.2296,2.2296,2.2296,2.2296,2.2296,2.2296,2.2296,2.2296,2.2296,2.2296,2.2296,2.2296,2.2296,2.2296,2.2296,2.2296,2.2296,2.2296,2.2296,2.2296,2.2296,2.2296,2.2296,2.2296,2.2296,2.2296,2.2296,0.0,0.0,0.0,0.0,1.8533,0.0,0.0,0.0,0.0,0.0,0.0,0.0,0.0,0.0,0.0,0.0,0.0,0.0,0.0,0.0,0.0,0.0,0.0,0.0,0.0,0.0,2.3775,2.382,2.4104,2.4265,2.4265,2.4612,2.48,2.48,2.48,2.48,2.48,2.48,2.48,2.48,2.4557,2.4111,2.3475,2.2846,2.1841,2.0581,2.0251,1.9717,1.9102,1.9102,1.9102,1.9102,1.9102,1.9102,1.9102,1.9102,1.9102,1.9138,1.9406,1.9658,1.9904,2.02,2.0462,2.0664,2.0694,2.07,2.07,2.07,2.07,2.07,2.07,2.07,2.07,2.07,2.07,2.07,2.07,2.07,2.0779,2.1054,2.1323,2.158,2.1815,2.2093,2.2296,2.2296,2.2296,2.2296,2.2296,2.2296,2.2296,2.2296,2.2296,2.2296,2.2296,2.2296,2.2296,2.2296,2.2296,2.2296,2.2296,2.2296,2.2296,2.2296,2.2296,2.2296,2.2296,2.2296,2.2296,2.2296,2.2296,2.2296,0.0,0.0,0.0,0.0,0.0,0.0,0.0,0.0,1.7958,0.0,0.0,0.0,0.0,0.0,0.0,0.0,0.0,0.0,0.0,0.0,0.0,0.0,0.0,0.0,0.0,0.0,0.0,0.0,0.0,2.375,2.4186,2.4366,2.4554,2.4785,2.48,2.48,2.48,2.48,2.4717,2.4557,2.4264,2.3613,2.2671,2.2156,2.1256,2.0071,1.9891,1.9536,1.9102,1.9102,1.9102,1.9102,1.9102,1.9102,1.9102,1.9102,1.9199,1.9368,1.964,1.9912,2.0184,2.0444,2.0609,2.07,2.07,2.07,2.07,2.07,2.07,2.07,2.07,2.07,2.07,2.07,2.07,2.07,2.07,2.07,2.0833,2.1247,2.1414,2.1625,2.2066,2.223,2.2296,2.2296,2.2296,2.2296,2.2296,2.2296,2.2296,2.2296,2.2296,2.2296,2.2296,2.2296,2.2296,2.2296,2.2296,2.2296,2.2296,2.2296,2.2296,2.2296,2.2296,2.2296,2.2296,2.2296,2.2296,2.2296,2.2296,2.2296,2.1433,0.0,0.0,0.0,0.0,0.0,0.0,0.0,0.0,0.0,0.0,0.0,0.0,0.0,0.0,0.0,0.0,0.0,0.0,0.0,0.0,0.0,0.0,0.0,0.0,0.0,0.0,2.2627,2.2843,2.3194,2.3729,2.4041,2.4333,2.4629,2.4742,2.48,2.48,2.48,2.4668,2.439,2.3892,2.3062,2.1946,2.1471,2.0631,1.956,1.9594,1.9416,1.9102,1.9102,1.9102,1.9102,1.9102,1.9102,1.9108,1.9181,1.9326,1.9551,1.9885,2.019,2.0444,2.064,2.07,2.07,2.07,2.07,2.07,2.07,2.07,2.07,2.07,2.07,2.07,2.07,2.07,2.07,2.07,2.07,2.0855,2.1399,2.1498,2.167,2.2206,2.2296,2.2296,2.2296,2.2296,2.2296,2.2296,2.2296,2.2296,2.2296,2.2296,2.2296,2.2296,2.2296,2.2296,2.2296,2.2296,2.2296,2.2296,2.2296,2.2296,2.2296,2.2296,2.2296,2.2296,2.2296,2.2296,2.2296,2.2296,2.2296,0.0,0.0,0.0,2.0383,0.0,0.0,0.0,0.0,1.8473,0.0,0.0,0.0,0.0,0.0,0.0,1.9314,0.0,0.0,0.0,0.0,0.0,0.0,0.0,0.0,0.0,0.0,0.0,2.1453,2.2181,2.2635,2.2645,2.3639,2.4212,2.4222,2.4603,2.48,2.48,2.48,2.4668,2.439,2.3468,2.253,2.1596,2.093,2.0108,1.9228,1.9485,1.9416,1.9102,1.9102,1.9102,1.9102,1.9102,1.9102,1.9126,1.9388,1.9491,1.9576,2.0097,2.0462,2.0694,2.07,2.07,2.07,2.07,2.07,2.07,2.07,2.07,2.07,2.07,2.07,2.07,2.07,2.07,2.07,2.07,2.07,2.0855,2.1399,2.1498,2.167,2.2206,2.2296,2.2296,2.2296,2.2296,2.2296,2.2296,2.2296,2.2296,2.2296,2.2296,2.2296,2.2296,2.2296,2.2296,2.2296,2.2296,2.2296,2.2296,2.2296,2.2296,2.2296,2.2296,2.2296,2.2296,2.2296,2.2296,2.2296,2.2296,2.2296,0.0,0.0,2.1477,2.0851,0.0,0.0,0.0,0.0,0.0,0.0,0.0,0.0,0.0,0.0,1.9841,1.9657,1.9389,0.0,0.0,0.0,0.0,0.0,0.0,0.0,0.0,0.0,0.0,2.0868,2.1448,2.2037,0.0,2.3415,2.3973,2.4188,2.4588,2.48,2.48,2.48,2.446,2.3803,2.3032,2.2078,2.098,2.031,1.9693,1.9138,1.9232,1.92,1.9102,1.9102,1.9102,1.9102,1.9102,1.9205,1.9376,1.9467,1.961,1.9845,2.0377,2.0619,2.07,2.07,2.07,2.07,2.07,2.07,2.07,2.07,2.07,2.07,2.07,2.07,2.07,2.07,2.07,2.07,2.07,2.0839,2.1069,2.1426,2.1637,2.1876,2.2236,2.2296,2.2296,2.2296,2.2296,2.2296,2.2296,2.2296,2.2296,2.2296,2.2296,2.2296,2.2296,2.2296,2.2296,2.2296,2.2296,2.2296,2.2296,2.2296,2.2296,2.2296,2.2296,2.2296,2.2296,2.2296,2.2296,2.2296,2.2296,2.2296,2.2781,2.259,0.0,2.1652,2.1091,0.0,1.9937,0.0,0.0,0.0,0.0,0.0,0.0,0.0,0.0,2.0,1.9623,1.9073,0.0,1.774,0.0,0.0,0.0,0.0,0.0,0.0,2.027,2.0409,2.0913,2.1496,0.0,0.0,2.3646,2.4009,2.4396,2.4655,2.48,2.48,2.4354,2.3486,2.2722,2.1709,2.0503,1.983,1.9315,1.896,1.9061,1.9102,1.9102,1.9102,1.9102,1.9102,1.9102,1.9259,1.9509,1.9612,1.9876,2.023,2.0577,2.07,2.07,2.07,2.07,2.07,2.07,2.07,2.07,2.07,2.07,2.07,2.07,2.07,2.07,2.07,2.07,2.07,2.07,2.0906,2.1178,2.1453,2.1719,2.1994,2.2254,2.2296,2.2296,2.2296,2.2296,2.2296,2.2296,2.2296,2.2296,2.2296,2.2296,2.2296,2.2296,2.2296,2.2296,2.2296,2.2296,2.2296,2.2296,2.2296,2.2296,2.2296,2.2296,2.2296,2.2296,2.2296,2.2296,2.2296,2.2296,2.2296]}]]